Time,TemperatureF,DewpointF,PressureIn,WindDirection,WindDirectionDegrees,WindSpeedMPH,WindSpeedGustMPH,Humidity,HourlyPrecipIn,Conditions,Clouds,dailyrainin,SoftwareType,DateUTC
2013-08-28 00:00:00,73.0,24.2,29.88,WNW,292,7.6,9.0,16,0.00,,SKC,0.00,VWS V14.00,2013-08-28 07:00:00,
2013-08-28 00:01:00,73.0,24.2,29.88,West,270,6.5,6.5,16,0.00,,SKC,0.00,VWS V14.00,2013-08-28 07:01:00,
2013-08-28 00:02:00,73.0,24.2,29.88,NW,315,5.6,6.5,16,0.00,,SKC,0.00,VWS V14.00,2013-08-28 07:02:00,
2013-08-28 00:03:00,73.0,24.2,29.88,NW,315,5.6,6.5,16,0.00,,SKC,0.00,VWS V14.00,2013-08-28 07:03:00,
2013-08-28 00:04:00,73.0,24.2,29.88,WNW,292,8.1,10.1,16,0.00,,SKC,0.00,VWS V14.00,2013-08-28 07:04:00,
2013-08-28 00:05:00,73.0,24.2,29.88,WNW,292,8.1,10.1,16,0.00,,SKC,0.00,VWS V14.00,2013-08-28 07:05:00,
2013-08-28 00:06:00,73.0,24.2,29.88,NW,315,5.8,8.1,16,0.00,,SKC,0.00,VWS V14.00,2013-08-28 07:06:00,
2013-08-28 00:07:00,72.9,24.1,29.88,NW,315,5.8,8.1,16,0.00,,SKC,0.00,VWS V14.00,2013-08-28 07:07:00,
2013-08-28 00:08:00,72.9,24.1,29.88,WNW,292,5.4,8.1,16,0.00,,SKC,0.00,VWS V14.00,2013-08-28 07:08:00,
2013-08-28 00:09:00,72.9,24.1,29.88,WNW,292,5.6,8.1,16,0.00,,SKC,0.00,VWS V14.00,2013-08-28 07:09:00,
2013-08-28 00:10:00,72.9,24.1,29.88,West,270,4.3,8.1,16,0.00,,SKC,0.00,VWS V14.00,2013-08-28 07:10:00,
2013-08-28 00:11:00,72.9,24.1,29.88,WNW,292,9.2,9.2,16,0.00,,SKC,0.00,VWS V14.00,2013-08-28 07:11:00,
2013-08-28 00:13:00,72.9,24.1,29.88,West,270,5.4,9.2,16,0.00,,SKC,0.00,VWS V14.00,2013-08-28 07:13:00,
2013-08-28 00:14:00,72.9,24.1,29.88,West,270,6.0,9.2,16,0.00,,SKC,0.00,VWS V14.00,2013-08-28 07:14:00,
2013-08-28 00:15:00,72.9,24.1,29.88,WNW,292,6.5,9.2,16,0.00,,SKC,0.00,VWS V14.00,2013-08-28 07:15:00,
2013-08-28 00:16:00,72.9,24.1,29.88,West,270,6.0,8.1,16,0.00,,SKC,0.00,VWS V14.00,2013-08-28 07:16:00,
2013-08-28 00:18:00,72.9,24.1,29.88,West,270,5.4,8.1,16,0.00,,SKC,0.00,VWS V14.00,2013-08-28 07:18:00,
2013-08-28 00:20:00,72.9,24.1,29.88,West,270,5.4,8.1,16,0.00,,SKC,0.00,VWS V14.00,2013-08-28 07:20:00,
2013-08-28 00:21:00,72.9,24.1,29.88,WNW,292,6.5,7.2,16,0.00,,SKC,0.00,VWS V14.00,2013-08-28 07:21:00,
2013-08-28 00:23:00,72.9,24.1,29.88,WSW,248,4.9,7.2,16,0.00,,SKC,0.00,VWS V14.00,2013-08-28 07:23:00,
2013-08-28 00:25:00,72.7,23.9,29.88,West,270,4.7,7.2,16,0.00,,SKC,0.00,VWS V14.00,2013-08-28 07:25:00,
2013-08-28 00:26:00,72.7,23.9,29.88,West,270,5.8,5.8,16,0.00,,SKC,0.00,VWS V14.00,2013-08-28 07:26:00,
2013-08-28 00:28:00,72.5,23.8,29.88,West,270,4.7,5.8,16,0.00,,SKC,0.00,VWS V14.00,2013-08-28 07:28:00,
2013-08-28 00:29:00,72.5,23.8,29.88,West,270,2.7,5.8,16,0.00,,SKC,0.00,VWS V14.00,2013-08-28 07:29:00,
2013-08-28 00:30:00,72.5,23.8,29.88,WNW,292,2.9,5.8,16,0.00,,SKC,0.00,VWS V14.00,2013-08-28 07:30:00,
2013-08-28 00:31:00,72.5,23.8,29.88,WNW,292,2.5,5.8,16,0.00,,SKC,0.00,VWS V14.00,2013-08-28 07:31:00,
2013-08-28 00:33:00,72.3,23.6,29.88,West,270,3.6,5.8,16,0.00,,SKC,0.00,VWS V14.00,2013-08-28 07:33:00,
2013-08-28 00:34:00,72.3,23.6,29.88,West,270,6.0,6.0,16,0.00,,SKC,0.00,VWS V14.00,2013-08-28 07:34:00,
2013-08-28 00:35:00,72.3,23.6,29.88,West,270,6.0,6.0,16,0.00,,SKC,0.00,VWS V14.00,2013-08-28 07:35:00,
2013-08-28 00:36:00,72.3,23.6,29.88,West,270,3.8,4.7,16,0.00,,SKC,0.00,VWS V14.00,2013-08-28 07:36:00,
2013-08-28 00:37:00,72.3,23.6,29.88,West,270,3.8,4.9,16,0.00,,SKC,0.00,VWS V14.00,2013-08-28 07:37:00,
2013-08-28 00:38:00,72.3,23.6,29.88,West,270,3.8,4.9,16,0.00,,SKC,0.00,VWS V14.00,2013-08-28 07:38:00,
2013-08-28 00:39:00,72.1,23.5,29.88,West,270,3.8,4.9,16,0.00,,SKC,0.00,VWS V14.00,2013-08-28 07:39:00,
2013-08-28 00:40:00,72.1,23.5,29.88,West,270,2.7,4.9,16,0.00,,SKC,0.00,VWS V14.00,2013-08-28 07:40:00,
2013-08-28 00:41:00,72.1,23.5,29.88,WNW,292,5.8,5.8,16,0.00,,SKC,0.00,VWS V14.00,2013-08-28 07:41:00,
2013-08-28 00:42:00,72.1,23.5,29.88,West,270,4.3,5.8,16,0.00,,SKC,0.00,VWS V14.00,2013-08-28 07:42:00,
2013-08-28 00:43:00,72.1,23.5,29.85,NW,315,2.5,5.8,16,0.00,,SKC,0.00,VWS V14.00,2013-08-28 07:43:00,
2013-08-28 00:45:00,72.0,23.4,29.85,West,270,3.6,5.8,16,0.00,,SKC,0.00,VWS V14.00,2013-08-28 07:45:00,
2013-08-28 00:47:00,72.1,23.5,29.85,West,270,4.3,4.9,16,0.00,,SKC,0.00,VWS V14.00,2013-08-28 07:47:00,
2013-08-28 00:48:00,72.1,23.5,29.85,WNW,292,2.5,4.9,16,0.00,,SKC,0.00,VWS V14.00,2013-08-28 07:48:00,
2013-08-28 00:50:00,72.0,23.4,29.85,SW,225,2.5,4.9,16,0.00,,SKC,0.00,VWS V14.00,2013-08-28 07:50:00,
2013-08-28 00:52:00,72.0,23.4,29.85,South,180,2.0,2.0,16,0.00,,SKC,0.00,VWS V14.00,2013-08-28 07:52:00,
2013-08-28 00:53:00,71.6,23.1,29.85,South,180,0.0,2.0,16,0.00,,SKC,0.00,VWS V14.00,2013-08-28 07:53:00,
2013-08-28 00:55:00,71.6,23.1,29.85,ESE,112,0.0,2.0,16,0.00,,SKC,0.00,VWS V14.00,2013-08-28 07:55:00,
2013-08-28 00:57:00,71.6,23.1,29.85,SE,135,0.0,2.0,16,0.00,,SKC,0.00,VWS V14.00,2013-08-28 07:57:00,
2013-08-28 00:59:00,71.6,23.1,29.85,SE,135,2.9,2.9,16,0.00,,SKC,0.00,VWS V14.00,2013-08-28 07:59:00,
2013-08-28 01:00:00,70.9,23.9,29.88,SE,135,0.0,2.9,17,0.00,,SKC,0.00,VWS V14.00,2013-08-28 08:00:00,
2013-08-28 01:02:00,70.7,23.8,29.88,East,90,0.0,0.0,17,0.00,,SKC,0.00,VWS V14.00,2013-08-28 08:02:00,
2013-08-28 01:04:00,70.7,23.8,29.88,East,90,0.0,0.0,17,0.00,,SKC,0.00,VWS V14.00,2013-08-28 08:04:00,
2013-08-28 01:05:00,70.5,23.6,29.88,SE,135,1.1,1.1,17,0.00,,SKC,0.00,VWS V14.00,2013-08-28 08:05:00,
2013-08-28 01:06:00,70.5,23.6,29.88,East,90,1.3,1.3,17,0.00,,SKC,0.00,VWS V14.00,2013-08-28 08:06:00,
2013-08-28 01:07:00,70.5,23.6,29.88,ENE,68,2.5,3.1,17,0.00,,SKC,0.00,VWS V14.00,2013-08-28 08:07:00,
2013-08-28 01:08:00,70.5,23.6,29.88,East,90,2.5,3.1,17,0.00,,SKC,0.00,VWS V14.00,2013-08-28 08:08:00,
2013-08-28 01:09:00,70.5,23.6,29.88,East,90,2.9,3.1,17,0.00,,SKC,0.00,VWS V14.00,2013-08-28 08:09:00,
2013-08-28 01:10:00,70.5,23.6,29.88,East,90,3.8,3.8,17,0.00,,SKC,0.00,VWS V14.00,2013-08-28 08:10:00,
2013-08-28 01:11:00,70.5,23.6,29.88,East,90,3.8,3.8,17,0.00,,SKC,0.00,VWS V14.00,2013-08-28 08:11:00,
2013-08-28 01:12:00,70.5,23.6,29.88,East,90,3.8,3.8,17,0.00,,SKC,0.00,VWS V14.00,2013-08-28 08:12:00,
2013-08-28 01:13:00,70.5,23.6,29.88,East,90,0.0,3.8,17,0.00,,SKC,0.00,VWS V14.00,2013-08-28 08:13:00,
2013-08-28 01:14:00,70.5,23.6,29.88,NNE,22,3.6,3.8,17,0.00,,SKC,0.00,VWS V14.00,2013-08-28 08:14:00,
2013-08-28 01:15:00,70.5,23.6,29.88,NE,45,3.4,4.0,17,0.00,,SKC,0.00,VWS V14.00,2013-08-28 08:15:00,
2013-08-28 01:17:00,70.5,23.6,29.88,East,90,2.0,3.4,17,0.00,,SKC,0.00,VWS V14.00,2013-08-28 08:17:00,
2013-08-28 01:18:00,70.5,23.6,29.88,SE,135,0.9,3.4,17,0.00,,SKC,0.00,VWS V14.00,2013-08-28 08:18:00,
2013-08-28 01:19:00,70.5,23.6,29.88,East,90,3.4,3.4,17,0.00,,SKC,0.00,VWS V14.00,2013-08-28 08:19:00,
2013-08-28 01:20:00,70.3,26.2,29.88,SE,135,1.1,3.8,19,0.00,,SKC,0.00,VWS V14.00,2013-08-28 08:20:00,
2013-08-28 01:22:00,70.3,26.2,29.88,SE,135,0.0,0.0,19,0.00,,SKC,0.00,VWS V14.00,2013-08-28 08:22:00,
2013-08-28 01:23:00,70.3,26.2,29.88,SE,135,0.0,0.0,19,0.00,,SKC,0.00,VWS V14.00,2013-08-28 08:23:00,
2013-08-28 01:24:00,70.3,26.2,29.88,NE,45,2.5,2.5,19,0.00,,SKC,0.00,VWS V14.00,2013-08-28 08:24:00,
2013-08-28 01:25:00,70.5,26.3,29.88,ENE,68,3.1,4.9,19,0.00,,SKC,0.00,VWS V14.00,2013-08-28 08:25:00,
2013-08-28 01:28:00,70.5,26.3,29.88,NE,45,3.4,6.5,19,0.00,,SKC,0.00,VWS V14.00,2013-08-28 08:28:00,
2013-08-28 01:29:00,70.5,26.3,29.85,NE,45,2.0,6.5,19,0.00,,SKC,0.00,VWS V14.00,2013-08-28 08:29:00,
2013-08-28 01:30:00,70.7,26.5,29.85,NNE,22,0.0,6.5,19,0.00,,SKC,0.00,VWS V14.00,2013-08-28 08:30:00,
2013-08-28 01:33:00,70.5,26.3,29.85,NE,45,0.0,0.9,19,0.00,,SKC,0.00,VWS V14.00,2013-08-28 08:33:00,
2013-08-28 01:34:00,70.5,26.3,29.85,NNE,22,0.0,0.9,19,0.00,,SKC,0.00,VWS V14.00,2013-08-28 08:34:00,
2013-08-28 01:35:00,70.5,26.3,29.85,NNE,22,0.0,0.9,19,0.00,,SKC,0.00,VWS V14.00,2013-08-28 08:35:00,
2013-08-28 01:38:00,70.5,26.3,29.85,North,0,0.0,0.0,19,0.00,,SKC,0.00,VWS V14.00,2013-08-28 08:38:00,
2013-08-28 01:39:00,70.5,26.3,29.85,North,0,0.0,0.0,19,0.00,,SKC,0.00,VWS V14.00,2013-08-28 08:39:00,
2013-08-28 01:40:00,70.5,26.3,29.85,North,0,0.0,0.0,19,0.00,,SKC,0.00,VWS V14.00,2013-08-28 08:40:00,
2013-08-28 01:43:00,70.0,25.9,29.88,NNW,338,3.4,3.8,19,0.00,,SKC,0.00,VWS V14.00,2013-08-28 08:43:00,
2013-08-28 01:45:00,70.2,26.0,29.88,North,0,1.6,3.8,19,0.00,,SKC,0.00,VWS V14.00,2013-08-28 08:45:00,
2013-08-28 01:46:00,70.2,26.0,29.88,NNW,338,3.8,3.8,19,0.00,,SKC,0.00,VWS V14.00,2013-08-28 08:46:00,
2013-08-28 01:48:00,70.3,26.2,29.88,NNW,338,0.0,3.8,19,0.00,,SKC,0.00,VWS V14.00,2013-08-28 08:48:00,
2013-08-28 01:49:00,70.3,26.2,29.88,NNW,338,0.0,3.8,19,0.00,,SKC,0.00,VWS V14.00,2013-08-28 08:49:00,
2013-08-28 01:50:00,70.2,26.0,29.88,NNW,338,0.0,3.8,19,0.00,,SKC,0.00,VWS V14.00,2013-08-28 08:50:00,
2013-08-28 01:51:00,70.2,26.0,29.88,NNW,338,0.0,3.8,19,0.00,,SKC,0.00,VWS V14.00,2013-08-28 08:51:00,
2013-08-28 01:53:00,70.2,26.0,29.88,SW,225,0.0,3.8,19,0.00,,SKC,0.00,VWS V14.00,2013-08-28 08:53:00,
2013-08-28 01:55:00,70.2,26.0,29.88,South,180,1.6,3.8,19,0.00,,SKC,0.00,VWS V14.00,2013-08-28 08:55:00,
2013-08-28 01:56:00,69.8,25.7,29.88,East,90,0.0,2.0,19,0.00,,SKC,0.00,VWS V14.00,2013-08-28 08:56:00,
2013-08-28 01:58:00,69.8,25.7,29.88,East,90,0.0,2.0,19,0.00,,SKC,0.00,VWS V14.00,2013-08-28 08:58:00,
2013-08-28 02:00:00,69.8,25.7,29.88,SE,135,0.0,2.0,19,0.00,,SKC,0.00,VWS V14.00,2013-08-28 09:00:00,
2013-08-28 02:01:00,69.3,26.5,29.88,SE,135,0.0,2.0,20,0.00,,SKC,0.00,VWS V14.00,2013-08-28 09:01:00,
2013-08-28 02:03:00,69.3,26.5,29.88,SE,135,0.0,2.0,20,0.00,,SKC,0.00,VWS V14.00,2013-08-28 09:03:00,
2013-08-28 02:05:00,68.9,26.2,29.88,South,180,0.0,2.0,20,0.00,,SKC,0.00,VWS V14.00,2013-08-28 09:05:00,
2013-08-28 02:06:00,68.7,26.1,29.88,South,180,0.0,0.0,20,0.00,,SKC,0.00,VWS V14.00,2013-08-28 09:06:00,
2013-08-28 02:08:00,68.4,25.8,29.88,South,180,0.0,0.0,20,0.00,,SKC,0.00,VWS V14.00,2013-08-28 09:08:00,
2013-08-28 02:10:00,68.2,25.6,29.88,South,180,0.0,1.1,20,0.00,,SKC,0.00,VWS V14.00,2013-08-28 09:10:00,
2013-08-28 02:11:00,68.2,25.6,29.88,South,180,0.0,1.1,20,0.00,,SKC,0.00,VWS V14.00,2013-08-28 09:11:00,
2013-08-28 02:12:00,68.0,25.5,29.88,South,180,0.0,0.0,20,0.00,,SKC,0.00,VWS V14.00,2013-08-28 09:12:00,
2013-08-28 02:13:00,68.0,25.5,29.88,South,180,1.3,1.3,20,0.00,,SKC,0.00,VWS V14.00,2013-08-28 09:13:00,
2013-08-28 02:15:00,67.6,27.5,29.88,South,180,0.0,1.3,22,0.00,,SKC,0.00,VWS V14.00,2013-08-28 09:15:00,
2013-08-28 02:16:00,67.6,27.5,29.88,South,180,0.0,0.0,22,0.00,,SKC,0.00,VWS V14.00,2013-08-28 09:16:00,
2013-08-28 02:17:00,67.5,27.3,29.88,South,180,0.0,0.0,22,0.00,,SKC,0.00,VWS V14.00,2013-08-28 09:17:00,
2013-08-28 02:20:00,67.3,27.2,29.88,South,180,0.0,0.0,22,0.00,,SKC,0.00,VWS V14.00,2013-08-28 09:20:00,
2013-08-28 02:21:00,67.3,27.2,29.88,South,180,0.0,0.0,22,0.00,,SKC,0.00,VWS V14.00,2013-08-28 09:21:00,
2013-08-28 02:22:00,67.1,27.0,29.88,South,180,0.0,0.0,22,0.00,,SKC,0.00,VWS V14.00,2013-08-28 09:22:00,
2013-08-28 02:23:00,67.1,27.0,29.88,South,180,0.0,0.0,22,0.00,,SKC,0.00,VWS V14.00,2013-08-28 09:23:00,
2013-08-28 02:25:00,66.9,26.9,29.88,WNW,292,1.3,1.3,22,0.00,,SKC,0.00,VWS V14.00,2013-08-28 09:25:00,
2013-08-28 02:26:00,66.7,26.7,29.88,WNW,292,1.6,1.6,22,0.00,,SKC,0.00,VWS V14.00,2013-08-28 09:26:00,
2013-08-28 02:27:00,66.7,26.7,29.88,WNW,292,1.3,1.6,22,0.00,,SKC,0.00,VWS V14.00,2013-08-28 09:27:00,
2013-08-28 02:28:00,66.7,26.7,29.88,WNW,292,0.0,1.6,22,0.00,,SKC,0.00,VWS V14.00,2013-08-28 09:28:00,
2013-08-28 02:30:00,66.6,26.6,29.88,WNW,292,0.0,1.6,22,0.00,,SKC,0.00,VWS V14.00,2013-08-28 09:30:00,
2013-08-28 02:32:00,66.6,26.6,29.88,WNW,292,0.0,1.6,22,0.00,,SKC,0.00,VWS V14.00,2013-08-28 09:32:00,
2013-08-28 02:33:00,66.4,26.4,29.88,WNW,292,0.0,1.6,22,0.00,,SKC,0.00,VWS V14.00,2013-08-28 09:33:00,
2013-08-28 02:35:00,66.2,26.3,29.88,WNW,292,0.0,1.6,22,0.00,,SKC,0.00,VWS V14.00,2013-08-28 09:35:00,
2013-08-28 02:37:00,66.2,26.3,29.88,WNW,292,0.0,0.0,22,0.00,,SKC,0.00,VWS V14.00,2013-08-28 09:37:00,
2013-08-28 02:38:00,66.0,27.2,29.88,WNW,292,0.0,0.0,23,0.00,,SKC,0.00,VWS V14.00,2013-08-28 09:38:00,
2013-08-28 02:39:00,66.0,27.2,29.88,WNW,292,0.0,0.0,23,0.00,,SKC,0.00,VWS V14.00,2013-08-28 09:39:00,
2013-08-28 02:40:00,65.8,27.0,29.88,WNW,292,0.0,0.0,23,0.00,,SKC,0.00,VWS V14.00,2013-08-28 09:40:00,
2013-08-28 02:42:00,65.8,27.0,29.88,WNW,292,0.0,0.0,23,0.00,,SKC,0.00,VWS V14.00,2013-08-28 09:42:00,
2013-08-28 02:43:00,65.8,27.0,29.88,WNW,292,0.0,0.0,23,0.00,,SKC,0.00,VWS V14.00,2013-08-28 09:43:00,
2013-08-28 02:44:00,65.8,27.0,29.85,WNW,292,0.0,0.0,23,0.00,,SKC,0.00,VWS V14.00,2013-08-28 09:44:00,
2013-08-28 02:45:00,65.8,27.0,29.85,WNW,292,0.0,0.0,23,0.00,,SKC,0.00,VWS V14.00,2013-08-28 09:45:00,
2013-08-28 02:47:00,65.7,26.9,29.85,WNW,292,0.0,0.0,23,0.00,,SKC,0.00,VWS V14.00,2013-08-28 09:47:00,
2013-08-28 02:49:00,65.5,26.7,29.85,WNW,292,0.0,0.0,23,0.00,,SKC,0.00,VWS V14.00,2013-08-28 09:49:00,
2013-08-28 02:50:00,65.3,26.6,29.85,WNW,292,0.0,0.0,23,0.00,,SKC,0.00,VWS V14.00,2013-08-28 09:50:00,
2013-08-28 02:51:00,65.3,26.6,29.85,WNW,292,0.0,0.0,23,0.00,,SKC,0.00,VWS V14.00,2013-08-28 09:51:00,
2013-08-28 02:53:00,65.3,26.6,29.85,WNW,292,0.0,0.0,23,0.00,,SKC,0.00,VWS V14.00,2013-08-28 09:53:00,
2013-08-28 02:54:00,65.3,26.6,29.85,WNW,292,0.0,0.0,23,0.00,,SKC,0.00,VWS V14.00,2013-08-28 09:54:00,
2013-08-28 02:55:00,65.3,26.6,29.85,WNW,292,0.0,0.0,23,0.00,,SKC,0.00,VWS V14.00,2013-08-28 09:55:00,
2013-08-28 02:56:00,64.9,26.3,29.85,WNW,292,0.0,0.0,23,0.00,,SKC,0.00,VWS V14.00,2013-08-28 09:56:00,
2013-08-28 02:58:00,64.9,26.3,29.88,WNW,292,0.0,0.0,23,0.00,,SKC,0.00,VWS V14.00,2013-08-28 09:58:00,
2013-08-28 02:59:00,64.9,26.3,29.88,WNW,292,0.0,0.0,23,0.00,,SKC,0.00,VWS V14.00,2013-08-28 09:59:00,
2013-08-28 03:00:00,64.9,26.3,29.88,WNW,292,0.0,0.0,23,0.00,,SKC,0.00,VWS V14.00,2013-08-28 10:00:00,
2013-08-28 03:01:00,64.9,26.3,29.88,WNW,292,0.0,0.0,23,0.00,,SKC,0.00,VWS V14.00,2013-08-28 10:01:00,
2013-08-28 03:03:00,64.9,26.3,29.88,West,270,0.0,0.0,23,0.00,,SKC,0.00,VWS V14.00,2013-08-28 10:03:00,
2013-08-28 03:04:00,65.1,27.5,29.88,SW,225,0.0,0.0,24,0.00,,SKC,0.00,VWS V14.00,2013-08-28 10:04:00,
2013-08-28 03:05:00,65.1,27.5,29.88,SW,225,0.0,0.0,24,0.00,,SKC,0.00,VWS V14.00,2013-08-28 10:05:00,
2013-08-28 03:06:00,65.3,27.6,29.88,SW,225,0.0,0.0,24,0.00,,SKC,0.00,VWS V14.00,2013-08-28 10:06:00,
2013-08-28 03:08:00,65.1,27.5,29.88,SW,225,0.0,0.0,24,0.00,,SKC,0.00,VWS V14.00,2013-08-28 10:08:00,
2013-08-28 03:10:00,65.1,27.5,29.88,SW,225,0.0,0.0,24,0.00,,SKC,0.00,VWS V14.00,2013-08-28 10:10:00,
2013-08-28 03:11:00,65.1,27.5,29.88,North,0,0.0,0.0,24,0.00,,SKC,0.00,VWS V14.00,2013-08-28 10:11:00,
2013-08-28 03:12:00,64.9,27.3,29.88,North,0,0.0,0.0,24,0.00,,SKC,0.00,VWS V14.00,2013-08-28 10:12:00,
2013-08-28 03:13:00,64.9,27.3,29.88,North,0,0.0,0.0,24,0.00,,SKC,0.00,VWS V14.00,2013-08-28 10:13:00,
2013-08-28 03:15:00,64.9,27.3,29.88,North,0,0.0,0.0,24,0.00,,SKC,0.00,VWS V14.00,2013-08-28 10:15:00,
2013-08-28 03:16:00,64.9,27.3,29.88,North,0,0.0,0.0,24,0.00,,SKC,0.00,VWS V14.00,2013-08-28 10:16:00,
2013-08-28 03:17:00,64.9,27.3,29.88,North,0,0.0,0.0,24,0.00,,SKC,0.00,VWS V14.00,2013-08-28 10:17:00,
2013-08-28 03:18:00,64.9,28.3,29.88,North,0,0.0,0.0,25,0.00,,SKC,0.00,VWS V14.00,2013-08-28 10:18:00,
2013-08-28 03:20:00,64.9,27.3,29.88,North,0,0.0,0.0,24,0.00,,SKC,0.00,VWS V14.00,2013-08-28 10:20:00,
2013-08-28 03:21:00,65.1,27.5,29.88,North,0,0.0,0.0,24,0.00,,SKC,0.00,VWS V14.00,2013-08-28 10:21:00,
2013-08-28 03:23:00,65.1,27.5,29.88,North,0,0.0,0.0,24,0.00,,SKC,0.00,VWS V14.00,2013-08-28 10:23:00,
2013-08-28 03:25:00,64.9,27.3,29.88,North,0,0.0,0.0,24,0.00,,SKC,0.00,VWS V14.00,2013-08-28 10:25:00,
2013-08-28 03:26:00,64.9,27.3,29.88,North,0,0.0,0.0,24,0.00,,SKC,0.00,VWS V14.00,2013-08-28 10:26:00,
2013-08-28 03:28:00,64.8,27.2,29.88,North,0,0.0,0.0,24,0.00,,SKC,0.00,VWS V14.00,2013-08-28 10:28:00,
2013-08-28 03:29:00,64.8,27.2,29.88,North,0,0.0,0.0,24,0.00,,SKC,0.00,VWS V14.00,2013-08-28 10:29:00,
2013-08-28 03:30:00,64.8,27.2,29.88,North,0,0.0,0.0,24,0.00,,SKC,0.00,VWS V14.00,2013-08-28 10:30:00,
2013-08-28 03:31:00,64.8,27.2,29.88,North,0,0.0,0.0,24,0.00,,SKC,0.00,VWS V14.00,2013-08-28 10:31:00,
2013-08-28 03:33:00,64.8,27.2,29.88,North,0,0.0,0.0,24,0.00,,SKC,0.00,VWS V14.00,2013-08-28 10:33:00,
2013-08-28 03:34:00,64.8,27.2,29.88,North,0,0.0,0.0,24,0.00,,SKC,0.00,VWS V14.00,2013-08-28 10:34:00,
2013-08-28 03:35:00,64.8,27.2,29.88,North,0,0.0,0.0,24,0.00,,SKC,0.00,VWS V14.00,2013-08-28 10:35:00,
2013-08-28 03:36:00,64.8,27.2,29.88,North,0,0.0,0.0,24,0.00,,SKC,0.00,VWS V14.00,2013-08-28 10:36:00,
2013-08-28 03:38:00,64.8,27.2,29.88,North,0,0.0,0.0,24,0.00,,SKC,0.00,VWS V14.00,2013-08-28 10:38:00,
2013-08-28 03:39:00,64.8,27.2,29.88,North,0,0.0,0.0,24,0.00,,SKC,0.00,VWS V14.00,2013-08-28 10:39:00,
2013-08-28 03:41:00,64.8,27.2,29.88,North,0,0.0,0.0,24,0.00,,SKC,0.00,VWS V14.00,2013-08-28 10:41:00,
2013-08-28 03:43:00,64.4,27.8,29.88,North,0,0.0,0.0,25,0.00,,SKC,0.00,VWS V14.00,2013-08-28 10:43:00,
2013-08-28 03:44:00,64.4,27.8,29.88,North,0,0.0,0.0,25,0.00,,SKC,0.00,VWS V14.00,2013-08-28 10:44:00,
2013-08-28 03:46:00,64.2,27.7,29.88,North,0,0.0,0.0,25,0.00,,SKC,0.00,VWS V14.00,2013-08-28 10:46:00,
2013-08-28 03:47:00,64.2,27.7,29.88,North,0,0.0,0.0,25,0.00,,SKC,0.00,VWS V14.00,2013-08-28 10:47:00,
2013-08-28 03:48:00,64.2,27.7,29.88,North,0,0.0,0.0,25,0.00,,SKC,0.00,VWS V14.00,2013-08-28 10:48:00,
2013-08-28 03:49:00,63.9,27.4,29.88,North,0,0.0,0.0,25,0.00,,SKC,0.00,VWS V14.00,2013-08-28 10:49:00,
2013-08-28 03:50:00,63.9,27.4,29.88,North,0,0.0,0.0,25,0.00,,SKC,0.00,VWS V14.00,2013-08-28 10:50:00,
2013-08-28 03:51:00,63.7,27.2,29.88,North,0,0.0,0.0,25,0.00,,SKC,0.00,VWS V14.00,2013-08-28 10:51:00,
2013-08-28 03:53:00,63.5,27.1,29.88,North,0,0.0,0.0,25,0.00,,SKC,0.00,VWS V14.00,2013-08-28 10:53:00,
2013-08-28 03:54:00,63.5,27.1,29.88,North,0,0.0,0.0,25,0.00,,SKC,0.00,VWS V14.00,2013-08-28 10:54:00,
2013-08-28 03:55:00,63.5,27.1,29.88,North,0,0.0,0.0,25,0.00,,SKC,0.00,VWS V14.00,2013-08-28 10:55:00,
2013-08-28 03:56:00,63.7,27.2,29.88,North,0,0.0,0.0,25,0.00,,SKC,0.00,VWS V14.00,2013-08-28 10:56:00,
2013-08-28 03:57:00,63.7,27.2,29.88,North,0,0.0,0.0,25,0.00,,SKC,0.00,VWS V14.00,2013-08-28 10:57:00,
2013-08-28 03:58:00,63.7,27.2,29.88,North,0,0.0,0.0,25,0.00,,SKC,0.00,VWS V14.00,2013-08-28 10:58:00,
2013-08-28 04:00:00,63.7,27.2,29.88,North,0,0.0,0.0,25,0.00,,SKC,0.00,VWS V14.00,2013-08-28 11:00:00,
2013-08-28 04:01:00,63.3,26.9,29.88,North,0,0.0,0.0,25,0.00,,SKC,0.00,VWS V14.00,2013-08-28 11:01:00,
2013-08-28 04:02:00,63.3,26.9,29.88,North,0,0.0,0.0,25,0.00,,SKC,0.00,VWS V14.00,2013-08-28 11:02:00,
2013-08-28 04:04:00,63.3,26.9,29.88,North,0,0.0,0.0,25,0.00,,SKC,0.00,VWS V14.00,2013-08-28 11:04:00,
2013-08-28 04:05:00,63.3,26.9,29.88,North,0,0.0,0.0,25,0.00,,SKC,0.00,VWS V14.00,2013-08-28 11:05:00,
2013-08-28 04:06:00,63.3,26.9,29.88,North,0,0.0,0.0,25,0.00,,SKC,0.00,VWS V14.00,2013-08-28 11:06:00,
2013-08-28 04:07:00,63.1,27.7,29.88,South,180,0.0,0.0,26,0.00,,SKC,0.00,VWS V14.00,2013-08-28 11:07:00,
2013-08-28 04:09:00,63.1,27.7,29.88,South,180,0.0,0.0,26,0.00,,SKC,0.00,VWS V14.00,2013-08-28 11:09:00,
2013-08-28 04:10:00,63.1,27.7,29.88,South,180,0.0,0.0,26,0.00,,SKC,0.00,VWS V14.00,2013-08-28 11:10:00,
2013-08-28 04:11:00,63.1,27.7,29.88,South,180,0.0,0.0,26,0.00,,SKC,0.00,VWS V14.00,2013-08-28 11:11:00,
2013-08-28 04:12:00,63.1,27.7,29.88,South,180,0.0,0.0,26,0.00,,SKC,0.00,VWS V14.00,2013-08-28 11:12:00,
2013-08-28 04:14:00,63.1,27.7,29.88,NNW,338,1.6,1.6,26,0.00,,SKC,0.00,VWS V14.00,2013-08-28 11:14:00,
2013-08-28 04:15:00,63.0,27.6,29.88,NNW,338,0.0,2.2,26,0.00,,SKC,0.00,VWS V14.00,2013-08-28 11:15:00,
2013-08-28 04:16:00,63.0,27.6,29.88,NNW,338,0.0,0.0,26,0.00,,SKC,0.00,VWS V14.00,2013-08-28 11:16:00,
2013-08-28 04:17:00,62.8,27.4,29.88,NNW,338,0.0,0.0,26,0.00,,SKC,0.00,VWS V14.00,2013-08-28 11:17:00,
2013-08-28 04:19:00,62.8,27.4,29.88,NNW,338,0.0,0.0,26,0.00,,SKC,0.00,VWS V14.00,2013-08-28 11:19:00,
2013-08-28 04:20:00,62.6,27.3,29.88,NNW,338,0.0,0.0,26,0.00,,SKC,0.00,VWS V14.00,2013-08-28 11:20:00,
2013-08-28 04:21:00,62.6,27.3,29.88,NNW,338,0.0,0.0,26,0.00,,SKC,0.00,VWS V14.00,2013-08-28 11:21:00,
2013-08-28 04:22:00,62.6,27.3,29.88,NNW,338,0.0,0.0,26,0.00,,SKC,0.00,VWS V14.00,2013-08-28 11:22:00,
2013-08-28 04:24:00,62.6,27.3,29.88,NNW,338,0.0,0.0,26,0.00,,SKC,0.00,VWS V14.00,2013-08-28 11:24:00,
2013-08-28 04:25:00,62.6,27.3,29.88,NNW,338,0.0,0.0,26,0.00,,SKC,0.00,VWS V14.00,2013-08-28 11:25:00,
2013-08-28 04:26:00,62.6,27.3,29.88,NNW,338,0.0,0.0,26,0.00,,SKC,0.00,VWS V14.00,2013-08-28 11:26:00,
2013-08-28 04:27:00,62.6,27.3,29.88,NNW,338,0.0,0.0,26,0.00,,SKC,0.00,VWS V14.00,2013-08-28 11:27:00,
2013-08-28 04:29:00,62.4,27.1,29.88,NNW,338,0.0,0.0,26,0.00,,SKC,0.00,VWS V14.00,2013-08-28 11:29:00,
2013-08-28 04:30:00,62.4,27.1,29.88,NNW,338,0.0,0.0,26,0.00,,SKC,0.00,VWS V14.00,2013-08-28 11:30:00,
2013-08-28 04:31:00,62.2,27.9,29.88,NNW,338,0.0,0.0,27,0.00,,SKC,0.00,VWS V14.00,2013-08-28 11:31:00,
2013-08-28 04:32:00,62.2,27.9,29.88,ENE,68,1.6,1.6,27,0.00,,SKC,0.00,VWS V14.00,2013-08-28 11:32:00,
2013-08-28 04:33:00,62.1,27.7,29.88,East,90,1.3,1.6,27,0.00,,SKC,0.00,VWS V14.00,2013-08-28 11:33:00,
2013-08-28 04:34:00,62.1,27.7,29.88,East,90,0.9,1.6,27,0.00,,SKC,0.00,VWS V14.00,2013-08-28 11:34:00,
2013-08-28 04:35:00,61.7,27.4,29.88,East,90,0.9,1.6,27,0.00,,SKC,0.00,VWS V14.00,2013-08-28 11:35:00,
2013-08-28 04:36:00,61.7,27.4,29.88,East,90,1.6,1.6,27,0.00,,SKC,0.00,VWS V14.00,2013-08-28 11:36:00,
2013-08-28 04:37:00,61.7,29.1,29.88,NNE,22,4.7,4.7,29,0.00,,SKC,0.00,VWS V14.00,2013-08-28 11:37:00,
2013-08-28 04:38:00,61.7,29.1,29.88,NE,45,2.2,4.7,29,0.00,,SKC,0.00,VWS V14.00,2013-08-28 11:38:00,
2013-08-28 04:39:00,61.7,29.1,29.88,NE,45,2.2,4.7,29,0.00,,SKC,0.00,VWS V14.00,2013-08-28 11:39:00,
2013-08-28 04:40:00,61.7,28.3,29.88,ENE,68,0.0,4.7,28,0.00,,SKC,0.00,VWS V14.00,2013-08-28 11:40:00,
2013-08-28 04:41:00,61.7,28.3,29.88,ENE,68,0.0,4.7,28,0.00,,SKC,0.00,VWS V14.00,2013-08-28 11:41:00,
2013-08-28 04:42:00,61.7,28.3,29.88,ENE,68,0.0,0.0,28,0.00,,SKC,0.00,VWS V14.00,2013-08-28 11:42:00,
2013-08-28 04:43:00,61.7,28.3,29.85,ENE,68,0.0,0.0,28,0.00,,SKC,0.00,VWS V14.00,2013-08-28 11:43:00,
2013-08-28 04:44:00,61.7,28.3,29.85,ENE,68,0.0,0.0,28,0.00,,SKC,0.00,VWS V14.00,2013-08-28 11:44:00,
2013-08-28 04:45:00,61.7,28.3,29.85,ENE,68,0.0,0.0,28,0.00,,SKC,0.00,VWS V14.00,2013-08-28 11:45:00,
2013-08-28 04:46:00,61.5,28.1,29.85,NNE,22,0.0,1.1,28,0.00,,SKC,0.00,VWS V14.00,2013-08-28 11:46:00,
2013-08-28 04:47:00,61.5,28.1,29.85,NE,45,0.0,1.1,28,0.00,,SKC,0.00,VWS V14.00,2013-08-28 11:47:00,
2013-08-28 04:50:00,61.3,28.0,29.85,NE,45,0.0,1.1,28,0.00,,SKC,0.00,VWS V14.00,2013-08-28 11:50:00,
2013-08-28 04:51:00,61.2,26.9,29.85,NE,45,0.0,0.0,27,0.00,,SKC,0.00,VWS V14.00,2013-08-28 11:51:00,
2013-08-28 04:52:00,61.2,26.9,29.85,NE,45,0.0,0.0,27,0.00,,SKC,0.00,VWS V14.00,2013-08-28 11:52:00,
2013-08-28 04:55:00,61.2,27.8,29.85,South,180,0.0,0.0,28,0.00,,SKC,0.00,VWS V14.00,2013-08-28 11:55:00,
2013-08-28 04:56:00,61.0,27.7,29.85,South,180,0.0,0.0,28,0.00,,SKC,0.00,VWS V14.00,2013-08-28 11:56:00,
2013-08-28 04:57:00,61.0,27.7,29.85,South,180,0.0,0.0,28,0.00,,SKC,0.00,VWS V14.00,2013-08-28 11:57:00,
2013-08-28 04:58:00,60.8,28.4,29.85,South,180,0.0,0.0,29,0.00,,SKC,0.00,VWS V14.00,2013-08-28 11:58:00,
2013-08-28 05:00:00,60.8,28.4,29.88,South,180,0.0,0.0,29,0.00,,SKC,0.00,VWS V14.00,2013-08-28 12:00:00,
2013-08-28 05:01:00,60.8,28.4,29.88,SSE,158,1.1,1.1,29,0.00,,SKC,0.00,VWS V14.00,2013-08-28 12:01:00,
2013-08-28 05:02:00,60.8,28.4,29.88,SSE,158,0.0,1.1,29,0.00,,SKC,0.00,VWS V14.00,2013-08-28 12:02:00,
2013-08-28 05:03:00,60.8,28.4,29.88,SSE,158,0.0,1.1,29,0.00,,SKC,0.00,VWS V14.00,2013-08-28 12:03:00,
2013-08-28 05:05:00,60.6,28.2,29.88,SSE,158,0.0,1.1,29,0.00,,SKC,0.00,VWS V14.00,2013-08-28 12:05:00,
2013-08-28 05:06:00,60.6,29.0,29.88,SSE,158,0.0,0.0,30,0.00,,SKC,0.00,VWS V14.00,2013-08-28 12:06:00,
2013-08-28 05:07:00,60.6,29.0,29.88,SSE,158,0.0,0.0,30,0.00,,SKC,0.00,VWS V14.00,2013-08-28 12:07:00,
2013-08-28 05:08:00,60.6,29.0,29.88,SSE,158,0.0,0.0,30,0.00,,SKC,0.00,VWS V14.00,2013-08-28 12:08:00,
2013-08-28 05:10:00,60.6,29.0,29.88,South,180,0.0,0.0,30,0.00,,SKC,0.00,VWS V14.00,2013-08-28 12:10:00,
2013-08-28 05:11:00,60.1,27.7,29.88,South,180,0.0,0.0,29,0.00,,SKC,0.00,VWS V14.00,2013-08-28 12:11:00,
2013-08-28 05:12:00,60.1,27.7,29.88,South,180,0.0,0.0,29,0.00,,SKC,0.00,VWS V14.00,2013-08-28 12:12:00,
2013-08-28 05:13:00,59.9,27.6,29.88,South,180,0.0,0.0,29,0.00,,SKC,0.00,VWS V14.00,2013-08-28 12:13:00,
2013-08-28 05:15:00,59.5,27.3,29.88,South,180,0.0,0.0,29,0.00,,SKC,0.00,VWS V14.00,2013-08-28 12:15:00,
2013-08-28 05:16:00,59.5,27.3,29.88,South,180,0.0,0.0,29,0.00,,SKC,0.00,VWS V14.00,2013-08-28 12:16:00,
2013-08-28 05:17:00,59.4,27.1,29.88,South,180,0.0,0.0,29,0.00,,SKC,0.00,VWS V14.00,2013-08-28 12:17:00,
2013-08-28 05:18:00,59.4,27.1,29.88,South,180,0.0,0.0,29,0.00,,SKC,0.00,VWS V14.00,2013-08-28 12:18:00,
2013-08-28 05:20:00,59.7,29.8,29.88,South,180,0.0,0.0,32,0.00,,SKC,0.00,VWS V14.00,2013-08-28 12:20:00,
2013-08-28 05:22:00,59.7,29.8,29.88,South,180,0.0,0.0,32,0.00,,SKC,0.00,VWS V14.00,2013-08-28 12:22:00,
2013-08-28 05:23:00,59.7,29.8,29.88,South,180,0.0,0.0,32,0.00,,SKC,0.00,VWS V14.00,2013-08-28 12:23:00,
2013-08-28 05:25:00,59.5,30.4,29.88,North,0,0.0,0.0,33,0.00,,SKC,0.00,VWS V14.00,2013-08-28 12:25:00,
2013-08-28 05:26:00,59.5,30.4,29.88,North,0,0.0,0.0,33,0.00,,SKC,0.00,VWS V14.00,2013-08-28 12:26:00,
2013-08-28 05:27:00,59.4,28.7,29.88,NNW,338,0.0,0.0,31,0.00,,SKC,0.00,VWS V14.00,2013-08-28 12:27:00,
2013-08-28 05:28:00,59.4,28.7,29.88,NNW,338,0.0,0.0,31,0.00,,SKC,0.00,VWS V14.00,2013-08-28 12:28:00,
2013-08-28 05:30:00,59.2,28.6,29.88,NNW,338,0.0,0.0,31,0.00,,SKC,0.00,VWS V14.00,2013-08-28 12:30:00,
2013-08-28 05:31:00,59.2,28.6,29.88,NNW,338,0.0,0.0,31,0.00,,SKC,0.00,VWS V14.00,2013-08-28 12:31:00,
2013-08-28 05:32:00,59.2,28.6,29.88,NNW,338,0.0,0.0,31,0.00,,SKC,0.00,VWS V14.00,2013-08-28 12:32:00,
2013-08-28 05:33:00,59.2,28.6,29.88,NNW,338,0.0,0.0,31,0.00,,SKC,0.00,VWS V14.00,2013-08-28 12:33:00,
2013-08-28 05:35:00,59.2,28.6,29.88,NNW,338,0.0,0.0,31,0.00,,SKC,0.00,VWS V14.00,2013-08-28 12:35:00,
2013-08-28 05:36:00,59.2,28.6,29.88,NNW,338,0.0,0.0,31,0.00,,SKC,0.00,VWS V14.00,2013-08-28 12:36:00,
2013-08-28 05:37:00,58.8,29.8,29.88,NNW,338,0.0,0.0,33,0.00,,SKC,0.00,VWS V14.00,2013-08-28 12:37:00,
2013-08-28 05:38:00,58.8,29.8,29.88,NNW,338,0.0,0.0,33,0.00,,SKC,0.00,VWS V14.00,2013-08-28 12:38:00,
2013-08-28 05:40:00,58.8,29.0,29.88,NNW,338,0.0,0.0,32,0.00,,SKC,0.00,VWS V14.00,2013-08-28 12:40:00,
2013-08-28 05:41:00,58.8,29.0,29.88,NNW,338,0.0,0.0,32,0.00,,SKC,0.00,VWS V14.00,2013-08-28 12:41:00,
2013-08-28 05:42:00,58.8,29.0,29.88,NNW,338,0.0,0.0,32,0.00,,SKC,0.00,VWS V14.00,2013-08-28 12:42:00,
2013-08-28 05:43:00,58.8,29.0,29.88,South,180,2.0,2.0,32,0.00,,SKC,0.00,VWS V14.00,2013-08-28 12:43:00,
2013-08-28 05:44:00,58.8,30.5,29.88,SSE,158,1.6,2.0,34,0.00,,SKC,0.00,VWS V14.00,2013-08-28 12:44:00,
2013-08-28 05:45:00,58.8,31.2,29.88,SSE,158,0.0,2.0,35,0.00,,SKC,0.00,VWS V14.00,2013-08-28 12:45:00,
2013-08-28 05:46:00,58.8,31.2,29.88,SSE,158,0.0,2.0,35,0.00,,SKC,0.00,VWS V14.00,2013-08-28 12:46:00,
2013-08-28 05:47:00,58.8,31.2,29.88,SSE,158,0.0,0.0,35,0.00,,SKC,0.00,VWS V14.00,2013-08-28 12:47:00,
2013-08-28 05:48:00,58.8,31.2,29.88,SSE,158,0.0,0.0,35,0.00,,SKC,0.00,VWS V14.00,2013-08-28 12:48:00,
2013-08-28 05:49:00,59.2,31.6,29.88,SSE,158,0.0,0.0,35,0.00,,SKC,0.00,VWS V14.00,2013-08-28 12:49:00,
2013-08-28 05:51:00,59.2,31.6,29.88,South,180,0.0,1.6,35,0.00,,SKC,0.00,VWS V14.00,2013-08-28 12:51:00,
2013-08-28 05:52:00,59.0,30.7,29.88,South,180,0.0,1.6,34,0.00,,SKC,0.00,VWS V14.00,2013-08-28 12:52:00,
2013-08-28 05:53:00,59.0,30.7,29.88,South,180,0.0,1.6,34,0.00,,SKC,0.00,VWS V14.00,2013-08-28 12:53:00,
2013-08-28 05:54:00,58.8,31.2,29.88,South,180,0.0,1.6,35,0.00,,SKC,0.00,VWS V14.00,2013-08-28 12:54:00,
2013-08-28 05:55:00,58.8,31.2,29.88,South,180,0.0,1.6,35,0.00,,SKC,0.00,VWS V14.00,2013-08-28 12:55:00,
2013-08-28 05:56:00,58.8,31.2,29.88,South,180,0.0,1.6,35,0.00,,SKC,0.00,VWS V14.00,2013-08-28 12:56:00,
2013-08-28 05:57:00,58.6,30.4,29.88,South,180,0.0,0.0,34,0.00,,SKC,0.00,VWS V14.00,2013-08-28 12:57:00,
2013-08-28 05:58:00,58.6,30.4,29.88,South,180,0.0,0.0,34,0.00,,SKC,0.00,VWS V14.00,2013-08-28 12:58:00,
2013-08-28 05:59:00,58.6,30.4,29.88,South,180,0.0,0.0,34,0.00,,SKC,0.00,VWS V14.00,2013-08-28 12:59:00,
2013-08-28 06:00:00,58.5,30.2,29.88,South,180,0.0,0.0,34,0.00,,SKC,0.00,VWS V14.00,2013-08-28 13:00:00,
2013-08-28 06:02:00,58.5,30.2,29.88,South,180,0.0,0.0,34,0.00,,SKC,0.00,VWS V14.00,2013-08-28 13:02:00,
2013-08-28 06:03:00,58.5,30.2,29.88,South,180,0.0,0.0,34,0.00,,SKC,0.00,VWS V14.00,2013-08-28 13:03:00,
2013-08-28 06:04:00,58.5,30.2,29.88,South,180,0.0,0.0,34,0.00,,SKC,0.00,VWS V14.00,2013-08-28 13:04:00,
2013-08-28 06:05:00,58.5,30.2,29.88,South,180,0.0,0.0,34,0.00,,SKC,0.00,VWS V14.00,2013-08-28 13:05:00,
2013-08-28 06:07:00,58.1,29.9,29.88,WNW,292,1.3,1.3,34,0.00,,SKC,0.00,VWS V14.00,2013-08-28 13:07:00,
2013-08-28 06:08:00,58.1,29.9,29.88,WNW,292,0.0,1.3,34,0.00,,SKC,0.00,VWS V14.00,2013-08-28 13:08:00,
2013-08-28 06:09:00,58.1,29.9,29.88,WNW,292,0.0,1.3,34,0.00,,SKC,0.00,VWS V14.00,2013-08-28 13:09:00,
2013-08-28 06:10:00,57.9,29.7,29.88,WNW,292,0.0,1.3,34,0.00,,SKC,0.00,VWS V14.00,2013-08-28 13:10:00,
2013-08-28 06:12:00,57.9,29.7,29.88,WNW,292,0.0,0.0,34,0.00,,SKC,0.00,VWS V14.00,2013-08-28 13:12:00,
2013-08-28 06:13:00,57.9,29.7,29.91,WNW,292,0.0,0.0,34,0.00,,SKC,0.00,VWS V14.00,2013-08-28 13:13:00,
2013-08-28 06:14:00,57.9,29.7,29.91,WNW,292,0.0,0.0,34,0.00,,SKC,0.00,VWS V14.00,2013-08-28 13:14:00,
2013-08-28 06:15:00,57.9,29.7,29.91,WNW,292,0.0,0.0,34,0.00,,SKC,0.00,VWS V14.00,2013-08-28 13:15:00,
2013-08-28 06:17:00,57.7,30.3,29.91,WNW,292,0.0,0.0,35,0.00,,SKC,0.00,VWS V14.00,2013-08-28 13:17:00,
2013-08-28 06:18:00,57.7,30.3,29.91,WNW,292,0.0,0.9,35,0.00,,SKC,0.00,VWS V14.00,2013-08-28 13:18:00,
2013-08-28 06:19:00,57.7,30.3,29.91,WNW,292,0.0,0.9,35,0.00,,SKC,0.00,VWS V14.00,2013-08-28 13:19:00,
2013-08-28 06:20:00,57.7,30.3,29.91,WNW,292,0.0,0.9,35,0.00,,SKC,0.00,VWS V14.00,2013-08-28 13:20:00,
2013-08-28 06:21:00,57.7,30.3,29.91,WNW,292,0.0,0.0,35,0.00,,SKC,0.00,VWS V14.00,2013-08-28 13:21:00,
2013-08-28 06:22:00,57.7,30.3,29.91,WNW,292,0.0,0.0,35,0.00,,SKC,0.00,VWS V14.00,2013-08-28 13:22:00,
2013-08-28 06:23:00,57.7,30.3,29.91,WNW,292,0.0,0.0,35,0.00,,SKC,0.00,VWS V14.00,2013-08-28 13:23:00,
2013-08-28 06:24:00,57.7,30.3,29.91,WNW,292,0.0,0.0,35,0.00,,SKC,0.00,VWS V14.00,2013-08-28 13:24:00,
2013-08-28 06:25:00,57.6,30.1,29.91,WNW,292,0.0,0.0,35,0.00,,SKC,0.00,VWS V14.00,2013-08-28 13:25:00,
2013-08-28 06:26:00,57.6,30.1,29.91,WNW,292,0.0,0.0,35,0.00,,SKC,0.00,VWS V14.00,2013-08-28 13:26:00,
2013-08-28 06:27:00,57.6,30.1,29.91,WNW,292,0.0,0.0,35,0.00,,SKC,0.00,VWS V14.00,2013-08-28 13:27:00,
2013-08-28 06:29:00,57.6,30.1,29.91,WNW,292,0.0,0.0,35,0.00,,SKC,0.00,VWS V14.00,2013-08-28 13:29:00,
2013-08-28 06:30:00,57.6,30.1,29.91,WNW,292,0.0,0.0,35,0.00,,SKC,0.00,VWS V14.00,2013-08-28 13:30:00,
2013-08-28 06:31:00,57.6,30.1,29.91,WNW,292,0.0,0.0,35,0.00,,SKC,0.00,VWS V14.00,2013-08-28 13:31:00,
2013-08-28 06:32:00,57.7,30.3,29.91,WNW,292,0.0,0.0,35,0.00,,SKC,0.00,VWS V14.00,2013-08-28 13:32:00,
2013-08-28 06:34:00,57.6,30.1,29.91,WNW,292,0.0,0.0,35,0.00,,SKC,0.00,VWS V14.00,2013-08-28 13:34:00,
2013-08-28 06:35:00,57.6,30.1,29.91,WNW,292,0.0,0.0,35,0.00,,SKC,0.00,VWS V14.00,2013-08-28 13:35:00,
2013-08-28 06:36:00,57.6,30.1,29.91,WNW,292,0.0,0.0,35,0.00,,SKC,0.00,VWS V14.00,2013-08-28 13:36:00,
2013-08-28 06:37:00,57.6,30.1,29.91,WNW,292,0.0,0.0,35,0.00,,SKC,0.00,VWS V14.00,2013-08-28 13:37:00,
2013-08-28 06:39:00,57.4,30.0,29.91,WNW,292,0.0,0.0,35,0.00,,SKC,0.00,VWS V14.00,2013-08-28 13:39:00,
2013-08-28 06:40:00,57.4,30.0,29.91,WNW,292,0.0,0.0,35,0.00,,SKC,0.00,VWS V14.00,2013-08-28 13:40:00,
2013-08-28 06:41:00,57.4,30.0,29.91,WNW,292,0.0,0.0,35,0.00,,SKC,0.00,VWS V14.00,2013-08-28 13:41:00,
2013-08-28 06:42:00,57.4,30.0,29.91,WNW,292,0.0,0.0,35,0.00,,SKC,0.00,VWS V14.00,2013-08-28 13:42:00,
2013-08-28 06:44:00,57.4,30.0,29.91,WNW,292,0.0,0.0,35,0.00,,SKC,0.00,VWS V14.00,2013-08-28 13:44:00,
2013-08-28 06:45:00,57.6,30.1,29.91,WNW,292,0.0,0.0,35,0.00,,SKC,0.00,VWS V14.00,2013-08-28 13:45:00,
2013-08-28 06:46:00,57.4,30.0,29.91,WNW,292,0.0,0.0,35,0.00,,SKC,0.00,VWS V14.00,2013-08-28 13:46:00,
2013-08-28 06:47:00,57.4,30.0,29.91,WNW,292,0.0,0.0,35,0.00,,SKC,0.00,VWS V14.00,2013-08-28 13:47:00,
2013-08-28 06:49:00,57.6,30.1,29.91,WNW,292,0.0,0.0,35,0.00,,SKC,0.00,VWS V14.00,2013-08-28 13:49:00,
2013-08-28 06:50:00,57.6,30.1,29.91,WNW,292,0.0,0.0,35,0.00,,SKC,0.00,VWS V14.00,2013-08-28 13:50:00,
2013-08-28 06:51:00,57.6,30.1,29.91,WNW,292,0.0,0.0,35,0.00,,SKC,0.00,VWS V14.00,2013-08-28 13:51:00,
2013-08-28 06:52:00,57.6,30.1,29.91,WNW,292,0.0,0.0,35,0.00,,SKC,0.00,VWS V14.00,2013-08-28 13:52:00,
2013-08-28 06:53:00,57.6,30.1,29.91,WNW,292,0.0,0.0,35,0.00,,SKC,0.00,VWS V14.00,2013-08-28 13:53:00,
2013-08-28 06:54:00,57.6,30.1,29.91,WNW,292,0.0,0.0,35,0.00,,SKC,0.00,VWS V14.00,2013-08-28 13:54:00,
2013-08-28 06:55:00,57.7,30.3,29.91,WNW,292,0.0,0.0,35,0.00,,SKC,0.00,VWS V14.00,2013-08-28 13:55:00,
2013-08-28 06:56:00,57.7,30.3,29.91,WNW,292,0.0,0.0,35,0.00,,SKC,0.00,VWS V14.00,2013-08-28 13:56:00,
2013-08-28 06:57:00,57.7,30.3,29.91,WNW,292,0.0,0.0,35,0.00,,SKC,0.00,VWS V14.00,2013-08-28 13:57:00,
2013-08-28 06:58:00,57.9,30.5,29.91,WNW,292,0.0,0.0,35,0.00,,SKC,0.00,VWS V14.00,2013-08-28 13:58:00,
2013-08-28 06:59:00,57.9,30.5,29.91,WNW,292,0.0,0.0,35,0.00,,SKC,0.00,VWS V14.00,2013-08-28 13:59:00,
2013-08-28 07:00:00,57.9,30.5,29.91,WNW,292,0.0,0.0,35,0.00,,SKC,0.00,VWS V14.00,2013-08-28 14:00:00,
2013-08-28 07:02:00,58.1,30.6,29.91,WNW,292,0.0,0.0,35,0.00,,SKC,0.00,VWS V14.00,2013-08-28 14:02:00,
2013-08-28 07:03:00,58.1,30.6,29.91,WNW,292,0.0,0.0,35,0.00,,SKC,0.00,VWS V14.00,2013-08-28 14:03:00,
2013-08-28 07:04:00,58.3,30.8,29.91,WNW,292,0.0,0.0,35,0.00,,SKC,0.00,VWS V14.00,2013-08-28 14:04:00,
2013-08-28 07:05:00,58.3,30.8,29.91,WNW,292,0.0,0.0,35,0.00,,SKC,0.00,VWS V14.00,2013-08-28 14:05:00,
2013-08-28 07:06:00,58.3,30.8,29.91,WNW,292,0.0,0.0,35,0.00,,SKC,0.00,VWS V14.00,2013-08-28 14:06:00,
2013-08-28 07:08:00,58.5,30.9,29.91,WNW,292,0.0,0.0,35,0.00,,SKC,0.00,VWS V14.00,2013-08-28 14:08:00,
2013-08-28 07:09:00,58.6,31.1,29.91,West,270,0.0,0.0,35,0.00,,SKC,0.00,VWS V14.00,2013-08-28 14:09:00,
2013-08-28 07:10:00,58.8,31.2,29.91,West,270,0.0,0.0,35,0.00,,SKC,0.00,VWS V14.00,2013-08-28 14:10:00,
2013-08-28 07:11:00,58.8,31.2,29.91,West,270,0.0,0.0,35,0.00,,SKC,0.00,VWS V14.00,2013-08-28 14:11:00,
2013-08-28 07:13:00,58.8,31.2,29.91,West,270,0.0,0.0,35,0.00,,SKC,0.00,VWS V14.00,2013-08-28 14:13:00,
2013-08-28 07:14:00,58.8,31.2,29.91,West,270,0.0,0.0,35,0.00,,SKC,0.00,VWS V14.00,2013-08-28 14:14:00,
2013-08-28 07:15:00,58.8,31.2,29.91,West,270,0.0,0.0,35,0.00,,SKC,0.00,VWS V14.00,2013-08-28 14:15:00,
2013-08-28 07:16:00,58.8,31.2,29.91,West,270,0.0,0.0,35,0.00,,SKC,0.00,VWS V14.00,2013-08-28 14:16:00,
2013-08-28 07:18:00,59.7,32.0,29.91,West,270,0.0,2.2,35,0.00,,SKC,0.00,VWS V14.00,2013-08-28 14:18:00,
2013-08-28 07:19:00,59.7,32.0,29.91,West,270,0.9,2.2,35,0.00,,SKC,0.00,VWS V14.00,2013-08-28 14:19:00,
2013-08-28 07:20:00,59.7,32.0,29.91,West,270,0.9,2.2,35,0.00,,SKC,0.00,VWS V14.00,2013-08-28 14:20:00,
2013-08-28 07:21:00,60.1,31.6,29.91,West,270,0.0,0.0,34,0.00,,SKC,0.00,VWS V14.00,2013-08-28 14:21:00,
2013-08-28 07:23:00,60.4,32.0,29.91,West,270,0.0,0.0,34,0.00,,SKC,0.00,VWS V14.00,2013-08-28 14:23:00,
2013-08-28 07:25:00,60.4,32.0,29.91,West,270,0.0,0.0,34,0.00,,SKC,0.00,VWS V14.00,2013-08-28 14:25:00,
2013-08-28 07:26:00,60.6,32.1,29.91,West,270,0.0,0.0,34,0.00,,SKC,0.00,VWS V14.00,2013-08-28 14:26:00,
2013-08-28 07:28:00,61.0,32.4,29.91,West,270,0.0,0.0,34,0.00,,SKC,0.00,VWS V14.00,2013-08-28 14:28:00,
2013-08-28 07:30:00,61.2,32.6,29.91,West,270,0.0,0.0,34,0.00,,SKC,0.00,VWS V14.00,2013-08-28 14:30:00,
2013-08-28 07:31:00,61.2,32.6,29.91,West,270,0.0,0.0,34,0.00,,SKC,0.00,VWS V14.00,2013-08-28 14:31:00,
2013-08-28 07:33:00,61.7,32.3,29.91,West,270,0.0,0.0,33,0.00,,SKC,0.00,VWS V14.00,2013-08-28 14:33:00,
2013-08-28 07:35:00,62.1,31.9,29.91,West,270,0.0,0.0,32,0.00,,SKC,0.00,VWS V14.00,2013-08-28 14:35:00,
2013-08-28 07:36:00,62.1,31.9,29.91,West,270,0.0,0.0,32,0.00,,SKC,0.00,VWS V14.00,2013-08-28 14:36:00,
2013-08-28 07:37:00,62.1,31.9,29.91,West,270,0.0,0.0,32,0.00,,SKC,0.00,VWS V14.00,2013-08-28 14:37:00,
2013-08-28 07:39:00,62.1,31.9,29.91,West,270,0.0,0.0,32,0.00,,SKC,0.00,VWS V14.00,2013-08-28 14:39:00,
2013-08-28 07:40:00,62.2,32.0,29.91,West,270,0.0,0.0,32,0.00,,SKC,0.00,VWS V14.00,2013-08-28 14:40:00,
2013-08-28 07:41:00,62.6,31.6,29.91,West,270,0.0,0.0,31,0.00,,SKC,0.00,VWS V14.00,2013-08-28 14:41:00,
2013-08-28 07:42:00,62.6,31.6,29.91,West,270,0.0,0.0,31,0.00,,SKC,0.00,VWS V14.00,2013-08-28 14:42:00,
2013-08-28 07:44:00,63.0,31.9,29.94,West,270,0.0,0.0,31,0.00,,SKC,0.00,VWS V14.00,2013-08-28 14:44:00,
2013-08-28 07:45:00,63.0,31.9,29.94,West,270,0.0,0.0,31,0.00,,SKC,0.00,VWS V14.00,2013-08-28 14:45:00,
2013-08-28 07:47:00,63.0,31.9,29.94,West,270,0.0,0.0,31,0.00,,SKC,0.00,VWS V14.00,2013-08-28 14:47:00,
2013-08-28 07:49:00,63.7,31.7,29.94,West,270,0.0,0.0,30,0.00,,SKC,0.00,VWS V14.00,2013-08-28 14:49:00,
2013-08-28 07:50:00,63.9,31.0,29.94,West,270,0.0,0.0,29,0.00,,SKC,0.00,VWS V14.00,2013-08-28 14:50:00,
2013-08-28 07:52:00,64.2,31.3,29.94,West,270,0.0,0.0,29,0.00,,SKC,0.00,VWS V14.00,2013-08-28 14:52:00,
2013-08-28 07:53:00,64.2,31.3,29.94,West,270,0.0,0.0,29,0.00,,SKC,0.00,VWS V14.00,2013-08-28 14:53:00,
2013-08-28 07:54:00,64.6,30.8,29.94,West,270,0.0,0.0,28,0.00,,SKC,0.00,VWS V14.00,2013-08-28 14:54:00,
2013-08-28 07:55:00,64.6,30.8,29.94,West,270,0.0,0.0,28,0.00,,SKC,0.00,VWS V14.00,2013-08-28 14:55:00,
2013-08-28 07:57:00,64.6,30.8,29.94,West,270,0.0,0.0,28,0.00,,SKC,0.00,VWS V14.00,2013-08-28 14:57:00,
2013-08-28 07:59:00,65.1,31.2,29.94,West,270,0.0,0.0,28,0.00,,SKC,0.00,VWS V14.00,2013-08-28 14:59:00,
2013-08-28 08:00:00,65.1,31.2,29.94,West,270,0.0,0.0,28,0.00,,SKC,0.00,VWS V14.00,2013-08-28 15:00:00,
2013-08-28 08:02:00,65.1,30.3,29.94,East,90,0.0,0.0,27,0.00,,SKC,0.00,VWS V14.00,2013-08-28 15:02:00,
2013-08-28 08:03:00,65.3,30.5,29.94,East,90,0.0,0.0,27,0.00,,SKC,0.00,VWS V14.00,2013-08-28 15:03:00,
2013-08-28 08:05:00,65.3,30.5,29.94,East,90,0.0,0.0,27,0.00,,SKC,0.00,VWS V14.00,2013-08-28 15:05:00,
2013-08-28 08:07:00,65.7,30.8,29.94,East,90,0.0,0.0,27,0.00,,SKC,0.00,VWS V14.00,2013-08-28 15:07:00,
2013-08-28 08:08:00,65.8,31.0,29.94,East,90,0.0,0.0,27,0.00,,SKC,0.00,VWS V14.00,2013-08-28 15:08:00,
2013-08-28 08:10:00,66.2,30.3,29.94,East,90,1.6,1.6,26,0.00,,SKC,0.00,VWS V14.00,2013-08-28 15:10:00,
2013-08-28 08:11:00,66.2,30.3,29.94,East,90,0.0,1.1,26,0.00,,SKC,0.00,VWS V14.00,2013-08-28 15:11:00,
2013-08-28 08:12:00,66.4,30.5,29.94,East,90,2.0,2.0,26,0.00,,SKC,0.00,VWS V14.00,2013-08-28 15:12:00,
2013-08-28 08:14:00,66.6,30.6,29.94,East,90,0.0,2.0,26,0.00,,SKC,0.00,VWS V14.00,2013-08-28 15:14:00,
2013-08-28 08:15:00,66.6,30.6,29.94,East,90,0.0,2.0,26,0.00,,SKC,0.00,VWS V14.00,2013-08-28 15:15:00,
2013-08-28 08:17:00,66.9,30.0,29.94,East,90,1.6,2.0,25,0.00,,SKC,0.00,VWS V14.00,2013-08-28 15:17:00,
2013-08-28 08:19:00,67.5,31.4,29.94,East,90,0.0,1.6,26,0.00,,SKC,0.00,VWS V14.00,2013-08-28 15:19:00,
2013-08-28 08:20:00,67.5,31.4,29.94,East,90,0.0,1.6,26,0.00,,SKC,0.00,VWS V14.00,2013-08-28 15:20:00,
2013-08-28 08:22:00,68.0,30.9,29.94,East,90,0.0,0.0,25,0.00,,SKC,0.00,VWS V14.00,2013-08-28 15:22:00,
2013-08-28 08:24:00,68.2,31.0,29.94,SE,135,0.0,0.0,25,0.00,,SKC,0.00,VWS V14.00,2013-08-28 15:24:00,
2013-08-28 08:25:00,68.4,31.2,29.94,SE,135,0.0,0.0,25,0.00,,SKC,0.00,VWS V14.00,2013-08-28 15:25:00,
2013-08-28 08:26:00,68.4,31.2,29.94,SE,135,0.0,0.0,25,0.00,,SKC,0.00,VWS V14.00,2013-08-28 15:26:00,
2013-08-28 08:27:00,68.9,30.6,29.94,East,90,0.0,0.0,24,0.00,,SKC,0.00,VWS V14.00,2013-08-28 15:27:00,
2013-08-28 08:29:00,69.1,30.8,29.94,East,90,0.0,1.3,24,0.00,,SKC,0.00,VWS V14.00,2013-08-28 15:29:00,
2013-08-28 08:30:00,69.1,30.8,29.94,East,90,0.0,1.3,24,0.00,,SKC,0.00,VWS V14.00,2013-08-28 15:30:00,
2013-08-28 08:31:00,69.3,31.0,29.94,ENE,68,0.0,0.0,24,0.00,,SKC,0.00,VWS V14.00,2013-08-28 15:31:00,
2013-08-28 08:32:00,69.6,30.2,29.94,East,90,2.2,2.2,23,0.00,,SKC,0.00,VWS V14.00,2013-08-28 15:32:00,
2013-08-28 08:34:00,69.6,30.2,29.94,East,90,2.5,2.5,23,0.00,,SKC,0.00,VWS V14.00,2013-08-28 15:34:00,
2013-08-28 08:35:00,69.6,30.2,29.94,East,90,2.7,2.9,23,0.00,,SKC,0.00,VWS V14.00,2013-08-28 15:35:00,
2013-08-28 08:36:00,69.8,30.4,29.94,East,90,2.2,2.2,23,0.00,,SKC,0.00,VWS V14.00,2013-08-28 15:36:00,
2013-08-28 08:37:00,70.0,30.5,29.94,East,90,2.0,3.1,23,0.00,,SKC,0.00,VWS V14.00,2013-08-28 15:37:00,
2013-08-28 08:39:00,70.0,30.5,29.94,East,90,2.5,3.1,23,0.00,,SKC,0.00,VWS V14.00,2013-08-28 15:39:00,
2013-08-28 08:40:00,70.2,30.7,29.94,East,90,2.5,3.1,23,0.00,,SKC,0.00,VWS V14.00,2013-08-28 15:40:00,
2013-08-28 08:41:00,70.2,30.7,29.94,East,90,2.5,3.1,23,0.00,,SKC,0.00,VWS V14.00,2013-08-28 15:41:00,
2013-08-28 08:43:00,70.5,31.0,29.94,East,90,2.0,2.5,23,0.00,,SKC,0.00,VWS V14.00,2013-08-28 15:43:00,
2013-08-28 08:44:00,70.5,31.0,29.94,East,90,2.0,2.5,23,0.00,,SKC,0.00,VWS V14.00,2013-08-28 15:44:00,
2013-08-28 08:45:00,71.1,31.4,29.94,ENE,68,0.0,2.5,23,0.00,,SKC,0.00,VWS V14.00,2013-08-28 15:45:00,
2013-08-28 08:46:00,71.4,31.7,29.94,East,90,0.0,0.0,23,0.00,,SKC,0.00,VWS V14.00,2013-08-28 15:46:00,
2013-08-28 08:48:00,71.6,30.8,29.94,East,90,0.0,0.0,22,0.00,,SKC,0.00,VWS V14.00,2013-08-28 15:48:00,
2013-08-28 08:49:00,72.1,31.2,29.94,ENE,68,0.0,0.0,22,0.00,,SKC,0.00,VWS V14.00,2013-08-28 15:49:00,
2013-08-28 08:50:00,72.3,31.4,29.94,ENE,68,0.0,0.0,22,0.00,,SKC,0.00,VWS V14.00,2013-08-28 15:50:00,
2013-08-28 08:51:00,72.5,31.5,29.94,East,90,0.0,0.0,22,0.00,,SKC,0.00,VWS V14.00,2013-08-28 15:51:00,
2013-08-28 08:53:00,72.5,31.5,29.94,East,90,0.0,0.0,22,0.00,,SKC,0.00,VWS V14.00,2013-08-28 15:53:00,
2013-08-28 08:54:00,72.5,31.5,29.94,SE,135,0.0,0.9,22,0.00,,SKC,0.00,VWS V14.00,2013-08-28 15:54:00,
2013-08-28 08:55:00,72.5,31.5,29.94,SE,135,0.0,0.9,22,0.00,,SKC,0.00,VWS V14.00,2013-08-28 15:55:00,
2013-08-28 08:56:00,72.5,31.5,29.94,SE,135,0.0,0.9,22,0.00,,SKC,0.00,VWS V14.00,2013-08-28 15:56:00,
2013-08-28 08:58:00,73.0,32.0,29.94,SE,135,0.0,0.0,22,0.00,,SKC,0.00,VWS V14.00,2013-08-28 15:58:00,
2013-08-28 09:00:00,73.4,31.1,29.94,SE,135,0.0,0.0,21,0.00,,SKC,0.00,VWS V14.00,2013-08-28 16:00:00,
2013-08-28 09:01:00,73.6,31.3,29.94,SE,135,0.0,0.0,21,0.00,,SKC,0.00,VWS V14.00,2013-08-28 16:01:00,
2013-08-28 09:02:00,73.6,31.3,29.94,SE,135,0.0,0.0,21,0.00,,SKC,0.00,VWS V14.00,2013-08-28 16:02:00,
2013-08-28 09:03:00,73.8,31.4,29.94,East,90,0.0,0.0,21,0.00,,SKC,0.00,VWS V14.00,2013-08-28 16:03:00,
2013-08-28 09:05:00,73.9,31.6,29.94,NE,45,0.0,0.0,21,0.00,,SKC,0.00,VWS V14.00,2013-08-28 16:05:00,
2013-08-28 09:06:00,74.7,32.2,29.94,NE,45,0.0,0.0,21,0.00,,SKC,0.00,VWS V14.00,2013-08-28 16:06:00,
2013-08-28 09:07:00,74.7,32.2,29.94,ENE,68,0.0,0.0,21,0.00,,SKC,0.00,VWS V14.00,2013-08-28 16:07:00,
2013-08-28 09:08:00,75.2,32.6,29.94,East,90,0.0,1.3,21,0.00,,SKC,0.00,VWS V14.00,2013-08-28 16:08:00,
2013-08-28 09:11:00,75.4,32.8,29.94,East,90,0.0,1.3,21,0.00,,SKC,0.00,VWS V14.00,2013-08-28 16:11:00,
2013-08-28 09:12:00,76.1,32.2,29.94,ENE,68,0.0,1.3,20,0.00,,SKC,0.00,VWS V14.00,2013-08-28 16:12:00,
2013-08-28 09:13:00,76.3,32.3,29.94,ENE,68,0.0,1.3,20,0.00,,SKC,0.00,VWS V14.00,2013-08-28 16:13:00,
2013-08-28 09:15:00,76.8,32.8,29.94,SE,135,0.0,1.3,20,0.00,,SKC,0.00,VWS V14.00,2013-08-28 16:15:00,
2013-08-28 09:16:00,76.8,32.8,29.94,SE,135,0.0,0.0,20,0.00,,SKC,0.00,VWS V14.00,2013-08-28 16:16:00,
2013-08-28 09:17:00,77.2,33.0,29.94,SE,135,0.0,0.0,20,0.00,,SKC,0.00,VWS V14.00,2013-08-28 16:17:00,
2013-08-28 09:18:00,77.2,33.0,29.94,SE,135,0.0,0.0,20,0.00,,SKC,0.00,VWS V14.00,2013-08-28 16:18:00,
2013-08-28 09:20:00,77.5,33.3,29.94,SE,135,0.0,0.0,20,0.00,,SKC,0.00,VWS V14.00,2013-08-28 16:20:00,
2013-08-28 09:21:00,77.5,33.3,29.94,SE,135,0.0,0.0,20,0.00,,SKC,0.00,VWS V14.00,2013-08-28 16:21:00,
2013-08-28 09:22:00,77.5,33.3,29.94,SSE,158,1.6,1.6,20,0.00,,SKC,0.00,VWS V14.00,2013-08-28 16:22:00,
2013-08-28 09:23:00,77.5,33.3,29.94,SSE,158,1.6,1.6,20,0.00,,SKC,0.00,VWS V14.00,2013-08-28 16:23:00,
2013-08-28 09:25:00,78.4,31.5,29.94,SSE,158,0.0,1.6,18,0.00,,SKC,0.00,VWS V14.00,2013-08-28 16:25:00,
2013-08-28 09:26:00,79.0,30.5,29.94,SW,225,0.0,0.0,17,0.00,,SKC,0.00,VWS V14.00,2013-08-28 16:26:00,
2013-08-28 09:27:00,79.5,30.9,29.94,North,0,0.0,0.0,17,0.00,,SKC,0.00,VWS V14.00,2013-08-28 16:27:00,
2013-08-28 09:28:00,79.7,31.1,29.94,North,0,0.0,0.0,17,0.00,,SKC,0.00,VWS V14.00,2013-08-28 16:28:00,
2013-08-28 09:29:00,79.7,31.1,29.94,North,0,0.0,0.0,17,0.00,,SKC,0.00,VWS V14.00,2013-08-28 16:29:00,
2013-08-28 09:30:00,80.4,31.7,29.94,SE,135,0.0,0.0,17,0.00,,SKC,0.00,VWS V14.00,2013-08-28 16:30:00,
2013-08-28 09:31:00,80.4,31.7,29.94,SE,135,0.0,0.0,17,0.00,,SKC,0.00,VWS V14.00,2013-08-28 16:31:00,
2013-08-28 09:32:00,80.4,31.7,29.94,SE,135,0.0,0.0,17,0.00,,SKC,0.00,VWS V14.00,2013-08-28 16:32:00,
2013-08-28 09:33:00,80.2,31.5,29.94,SE,135,0.0,0.0,17,0.00,,SKC,0.00,VWS V14.00,2013-08-28 16:33:00,
2013-08-28 09:34:00,80.2,31.5,29.94,SE,135,0.0,0.0,17,0.00,,SKC,0.00,VWS V14.00,2013-08-28 16:34:00,
2013-08-28 09:35:00,80.8,32.0,29.94,South,180,0.0,1.1,17,0.00,,SKC,0.00,VWS V14.00,2013-08-28 16:35:00,
2013-08-28 09:36:00,81.1,32.2,29.94,South,180,0.0,0.0,17,0.00,,SKC,0.00,VWS V14.00,2013-08-28 16:36:00,
2013-08-28 09:37:00,81.1,32.2,29.94,South,180,0.0,0.0,17,0.00,,SKC,0.00,VWS V14.00,2013-08-28 16:37:00,
2013-08-28 09:39:00,81.9,32.8,29.94,South,180,0.0,0.0,17,0.00,,SKC,0.00,VWS V14.00,2013-08-28 16:39:00,
2013-08-28 09:40:00,82.0,28.2,29.94,South,180,0.0,0.0,14,0.00,,SKC,0.00,VWS V14.00,2013-08-28 16:40:00,
2013-08-28 09:41:00,82.0,28.2,29.94,South,180,1.1,1.1,14,0.00,,SKC,0.00,VWS V14.00,2013-08-28 16:41:00,
2013-08-28 09:42:00,82.0,28.2,29.94,South,180,0.0,1.1,14,0.00,,SKC,0.00,VWS V14.00,2013-08-28 16:42:00,
2013-08-28 09:44:00,82.6,28.6,29.94,South,180,0.0,1.1,14,0.00,,SKC,0.00,VWS V14.00,2013-08-28 16:44:00,
2013-08-28 09:45:00,82.6,28.6,29.94,SE,135,1.1,2.2,14,0.00,,SKC,0.00,VWS V14.00,2013-08-28 16:45:00,
2013-08-28 09:46:00,82.6,28.6,29.94,East,90,0.0,0.0,14,0.00,,SKC,0.00,VWS V14.00,2013-08-28 16:46:00,
2013-08-28 09:47:00,82.4,28.5,29.94,SE,135,0.0,2.5,14,0.00,,SKC,0.00,VWS V14.00,2013-08-28 16:47:00,
2013-08-28 09:49:00,82.4,28.5,29.94,East,90,0.0,2.5,14,0.00,,SKC,0.00,VWS V14.00,2013-08-28 16:49:00,
2013-08-28 09:50:00,83.1,29.0,29.94,SE,135,2.2,2.5,14,0.00,,SKC,0.00,VWS V14.00,2013-08-28 16:50:00,
2013-08-28 09:51:00,83.3,29.2,29.94,SE,135,0.0,0.0,14,0.00,,SKC,0.00,VWS V14.00,2013-08-28 16:51:00,
2013-08-28 09:52:00,83.3,29.2,29.94,SE,135,0.9,1.6,14,0.00,,SKC,0.00,VWS V14.00,2013-08-28 16:52:00,
2013-08-28 09:54:00,83.3,29.2,29.94,ESE,112,1.6,2.0,14,0.00,,SKC,0.00,VWS V14.00,2013-08-28 16:54:00,
2013-08-28 09:55:00,83.3,29.2,29.94,ESE,112,1.6,2.0,14,0.00,,SKC,0.00,VWS V14.00,2013-08-28 16:55:00,
2013-08-28 09:56:00,83.5,29.3,29.94,East,90,0.0,1.3,14,0.00,,SKC,0.00,VWS V14.00,2013-08-28 16:56:00,
2013-08-28 09:58:00,83.8,29.6,29.94,SE,135,0.0,1.3,14,0.00,,SKC,0.00,VWS V14.00,2013-08-28 16:58:00,
2013-08-28 09:59:00,84.0,29.8,29.94,South,180,0.9,1.3,14,0.00,,SKC,0.00,VWS V14.00,2013-08-28 16:59:00,
2013-08-28 10:00:00,84.0,29.8,29.94,SE,135,0.0,2.0,14,0.00,,SKC,0.00,VWS V14.00,2013-08-28 17:00:00,
2013-08-28 10:01:00,84.0,29.8,29.94,SE,135,0.0,0.0,14,0.00,,SKC,0.00,VWS V14.00,2013-08-28 17:01:00,
2013-08-28 10:02:00,84.0,29.8,29.94,South,180,0.0,2.5,14,0.00,,SKC,0.00,VWS V14.00,2013-08-28 17:02:00,
2013-08-28 10:03:00,84.0,29.8,29.94,South,180,0.0,2.5,14,0.00,,SKC,0.00,VWS V14.00,2013-08-28 17:03:00,
2013-08-28 10:04:00,84.0,29.8,29.94,South,180,0.0,2.5,14,0.00,,SKC,0.00,VWS V14.00,2013-08-28 17:04:00,
2013-08-28 10:05:00,84.0,29.8,29.94,South,180,0.0,2.5,14,0.00,,SKC,0.00,VWS V14.00,2013-08-28 17:05:00,
2013-08-28 10:06:00,84.0,29.8,29.94,South,180,0.0,2.5,14,0.00,,SKC,0.00,VWS V14.00,2013-08-28 17:06:00,
2013-08-28 10:08:00,84.9,28.6,29.94,South,180,0.0,0.0,13,0.00,,SKC,0.00,VWS V14.00,2013-08-28 17:08:00,
2013-08-28 10:09:00,85.5,29.1,29.94,South,180,0.0,0.0,13,0.00,,SKC,0.00,VWS V14.00,2013-08-28 17:09:00,
2013-08-28 10:10:00,85.5,29.1,29.94,South,180,0.0,0.0,13,0.00,,SKC,0.00,VWS V14.00,2013-08-28 17:10:00,
2013-08-28 10:11:00,85.5,29.1,29.94,South,180,0.0,0.0,13,0.00,,SKC,0.00,VWS V14.00,2013-08-28 17:11:00,
2013-08-28 10:13:00,86.4,29.8,29.94,WSW,248,1.1,2.5,13,0.00,,SKC,0.00,VWS V14.00,2013-08-28 17:13:00,
2013-08-28 10:14:00,86.9,30.2,29.94,WSW,248,0.0,2.5,13,0.00,,SKC,0.00,VWS V14.00,2013-08-28 17:14:00,
2013-08-28 10:15:00,87.3,30.5,29.94,WSW,248,0.0,2.5,13,0.00,,SKC,0.00,VWS V14.00,2013-08-28 17:15:00,
2013-08-28 10:16:00,87.3,30.5,29.94,WSW,248,0.0,2.5,13,0.00,,SKC,0.00,VWS V14.00,2013-08-28 17:16:00,
2013-08-28 10:18:00,87.3,30.5,29.94,SE,135,2.2,2.7,13,0.00,,SKC,0.00,VWS V14.00,2013-08-28 17:18:00,
2013-08-28 10:19:00,87.8,30.9,29.94,South,180,0.0,2.7,13,0.00,,SKC,0.00,VWS V14.00,2013-08-28 17:19:00,
2013-08-28 10:20:00,88.0,31.0,29.94,ESE,112,2.5,2.7,13,0.00,,SKC,0.00,VWS V14.00,2013-08-28 17:20:00,
2013-08-28 10:21:00,87.8,30.9,29.94,SE,135,0.0,1.6,13,0.00,,SKC,0.00,VWS V14.00,2013-08-28 17:21:00,
2013-08-28 10:22:00,87.8,30.9,29.94,SE,135,0.0,1.6,13,0.00,,SKC,0.00,VWS V14.00,2013-08-28 17:22:00,
2013-08-28 10:23:00,88.0,31.0,29.94,South,180,0.0,1.6,13,0.00,,SKC,0.00,VWS V14.00,2013-08-28 17:23:00,
2013-08-28 10:25:00,89.1,31.9,29.94,East,90,2.5,2.5,13,0.00,,SKC,0.00,VWS V14.00,2013-08-28 17:25:00,
2013-08-28 10:26:00,89.1,31.9,29.94,SE,135,0.0,2.0,13,0.00,,SKC,0.00,VWS V14.00,2013-08-28 17:26:00,
2013-08-28 10:27:00,88.5,31.5,29.94,SE,135,2.7,2.7,13,0.00,,SKC,0.00,VWS V14.00,2013-08-28 17:27:00,
2013-08-28 10:28:00,88.2,31.2,29.94,NNE,22,2.7,4.3,13,0.00,,SKC,0.00,VWS V14.00,2013-08-28 17:28:00,
2013-08-28 10:30:00,88.3,31.3,29.91,NE,45,4.0,4.3,13,0.00,,SKC,0.00,VWS V14.00,2013-08-28 17:30:00,
2013-08-28 10:31:00,88.3,31.3,29.91,North,0,4.0,4.0,13,0.00,,SKC,0.00,VWS V14.00,2013-08-28 17:31:00,
2013-08-28 10:32:00,88.3,31.3,29.91,NE,45,3.8,4.9,13,0.00,,SKC,0.00,VWS V14.00,2013-08-28 17:32:00,
2013-08-28 10:33:00,88.3,31.3,29.91,NE,45,3.1,4.9,13,0.00,,SKC,0.00,VWS V14.00,2013-08-28 17:33:00,
2013-08-28 10:35:00,88.9,31.7,29.91,NE,45,3.8,4.9,13,0.00,,SKC,0.00,VWS V14.00,2013-08-28 17:35:00,
2013-08-28 10:36:00,88.9,31.7,29.91,NE,45,3.8,4.9,13,0.00,,SKC,0.00,VWS V14.00,2013-08-28 17:36:00,
2013-08-28 10:37:00,89.1,31.9,29.91,East,90,1.1,1.1,13,0.00,,SKC,0.00,VWS V14.00,2013-08-28 17:37:00,
2013-08-28 10:38:00,88.7,31.6,29.91,NNE,22,6.3,6.5,13,0.00,,SKC,0.00,VWS V14.00,2013-08-28 17:38:00,
2013-08-28 10:40:00,88.3,31.3,29.91,NE,45,3.6,6.5,13,0.00,,SKC,0.00,VWS V14.00,2013-08-28 17:40:00,
2013-08-28 10:41:00,88.3,31.3,29.91,NE,45,3.6,6.5,13,0.00,,SKC,0.00,VWS V14.00,2013-08-28 17:41:00,
2013-08-28 10:42:00,88.3,31.3,29.91,NNE,22,4.3,4.3,13,0.00,,SKC,0.00,VWS V14.00,2013-08-28 17:42:00,
2013-08-28 10:43:00,88.5,31.5,29.94,ENE,68,0.0,4.3,13,0.00,,SKC,0.00,VWS V14.00,2013-08-28 17:43:00,
2013-08-28 10:45:00,88.7,31.6,29.94,ENE,68,0.0,4.3,13,0.00,,SKC,0.00,VWS V14.00,2013-08-28 17:45:00,
2013-08-28 10:47:00,89.2,32.0,29.94,East,90,2.2,4.3,13,0.00,,SKC,0.00,VWS V14.00,2013-08-28 17:47:00,
2013-08-28 10:48:00,89.2,32.0,29.94,NNE,22,1.6,4.3,13,0.00,,SKC,0.00,VWS V14.00,2013-08-28 17:48:00,
2013-08-28 10:49:00,89.2,32.0,29.94,East,90,2.5,4.3,13,0.00,,SKC,0.00,VWS V14.00,2013-08-28 17:49:00,
2013-08-28 10:50:00,89.1,31.9,29.94,East,90,3.4,5.6,13,0.00,,SKC,0.00,VWS V14.00,2013-08-28 17:50:00,
2013-08-28 10:52:00,89.4,32.2,29.94,East,90,2.7,4.0,13,0.00,,SKC,0.00,VWS V14.00,2013-08-28 17:52:00,
2013-08-28 10:53:00,89.4,32.2,29.94,NNE,22,6.3,6.3,13,0.00,,SKC,0.00,VWS V14.00,2013-08-28 17:53:00,
2013-08-28 10:55:00,89.8,30.5,29.94,NNE,22,5.8,6.3,12,0.00,,SKC,0.00,VWS V14.00,2013-08-28 17:55:00,
2013-08-28 10:56:00,89.6,30.3,29.94,NE,45,4.7,6.3,12,0.00,,SKC,0.00,VWS V14.00,2013-08-28 17:56:00,
2013-08-28 10:57:00,89.6,30.3,29.94,NE,45,2.0,4.7,12,0.00,,SKC,0.00,VWS V14.00,2013-08-28 17:57:00,
2013-08-28 10:58:00,90.1,30.7,29.94,North,0,2.5,4.7,12,0.00,,SKC,0.00,VWS V14.00,2013-08-28 17:58:00,
2013-08-28 11:00:00,90.9,31.3,29.94,NNW,338,4.0,4.7,12,0.00,,SKC,0.00,VWS V14.00,2013-08-28 18:00:00,
2013-08-28 11:01:00,90.7,31.2,29.94,NNW,338,4.0,4.0,12,0.00,,SKC,0.00,VWS V14.00,2013-08-28 18:01:00,
2013-08-28 11:02:00,90.5,31.0,29.94,NW,315,1.1,4.0,12,0.00,,SKC,0.00,VWS V14.00,2013-08-28 18:02:00,
2013-08-28 11:03:00,91.2,31.6,29.94,WNW,292,3.1,4.0,12,0.00,,SKC,0.00,VWS V14.00,2013-08-28 18:03:00,
2013-08-28 11:04:00,91.2,31.6,29.94,WNW,292,3.1,4.0,12,0.00,,SKC,0.00,VWS V14.00,2013-08-28 18:04:00,
2013-08-28 11:05:00,91.2,31.6,29.94,WNW,292,3.1,4.0,12,0.00,,SKC,0.00,VWS V14.00,2013-08-28 18:05:00,
2013-08-28 11:06:00,91.2,31.6,29.94,WNW,292,3.1,4.0,12,0.00,,SKC,0.00,VWS V14.00,2013-08-28 18:06:00,
2013-08-28 11:07:00,93.4,31.1,29.94,ENE,68,6.0,6.0,11,0.00,,SKC,0.00,VWS V14.00,2013-08-28 18:07:00,
2013-08-28 11:08:00,93.4,31.1,29.94,East,90,5.4,6.0,11,0.00,,SKC,0.00,VWS V14.00,2013-08-28 18:08:00,
2013-08-28 11:09:00,93.4,31.1,29.94,East,90,5.4,6.0,11,0.00,,SKC,0.00,VWS V14.00,2013-08-28 18:09:00,
2013-08-28 11:10:00,91.2,31.6,29.94,East,90,4.3,6.0,12,0.00,,SKC,0.00,VWS V14.00,2013-08-28 18:10:00,
2013-08-28 11:11:00,90.9,31.3,29.94,ENE,68,4.3,4.3,12,0.00,,SKC,0.00,VWS V14.00,2013-08-28 18:11:00,
2013-08-28 11:12:00,90.3,30.9,29.94,East,90,6.0,6.7,12,0.00,,SKC,0.00,VWS V14.00,2013-08-28 18:12:00,
2013-08-28 11:13:00,90.5,31.0,29.94,East,90,3.1,6.7,12,0.00,,SKC,0.00,VWS V14.00,2013-08-28 18:13:00,
2013-08-28 11:14:00,90.7,31.2,29.94,SE,135,3.1,6.7,12,0.00,,SKC,0.00,VWS V14.00,2013-08-28 18:14:00,
2013-08-28 11:15:00,90.9,31.3,29.94,South,180,3.6,6.7,12,0.00,,SKC,0.00,VWS V14.00,2013-08-28 18:15:00,
2013-08-28 11:16:00,90.9,31.3,29.94,South,180,3.6,6.7,12,0.00,,SKC,0.00,VWS V14.00,2013-08-28 18:16:00,
2013-08-28 11:17:00,91.2,31.6,29.94,SE,135,3.4,3.6,12,0.00,,SKC,0.00,VWS V14.00,2013-08-28 18:17:00,
2013-08-28 11:19:00,92.3,32.4,29.94,NNE,22,2.2,3.6,12,0.00,,SKC,0.00,VWS V14.00,2013-08-28 18:19:00,
2013-08-28 11:20:00,93.4,31.1,29.94,West,270,0.9,3.6,11,0.00,,SKC,0.00,VWS V14.00,2013-08-28 18:20:00,
2013-08-28 11:21:00,93.6,31.2,29.94,NW,315,2.2,2.7,11,0.00,,SKC,0.00,VWS V14.00,2013-08-28 18:21:00,
2013-08-28 11:23:00,94.1,31.6,29.94,NNE,22,0.0,2.7,11,0.00,,SKC,0.00,VWS V14.00,2013-08-28 18:23:00,
2013-08-28 11:24:00,95.0,32.3,29.94,ENE,68,2.9,2.9,11,0.00,,SKC,0.00,VWS V14.00,2013-08-28 18:24:00,
2013-08-28 11:25:00,94.3,31.8,29.94,East,90,4.9,5.8,11,0.00,,SKC,0.00,VWS V14.00,2013-08-28 18:25:00,
2013-08-28 11:26:00,93.7,31.4,29.94,ESE,112,2.7,4.9,11,0.00,,SKC,0.00,VWS V14.00,2013-08-28 18:26:00,
2013-08-28 11:27:00,93.7,31.4,29.94,South,180,3.6,4.9,11,0.00,,SKC,0.00,VWS V14.00,2013-08-28 18:27:00,
2013-08-28 11:28:00,93.4,31.1,29.94,NE,45,4.3,4.9,11,0.00,,SKC,0.00,VWS V14.00,2013-08-28 18:28:00,
2013-08-28 11:29:00,93.2,31.0,29.94,NNE,22,2.7,4.9,11,0.00,,SKC,0.00,VWS V14.00,2013-08-28 18:29:00,
2013-08-28 11:30:00,93.7,31.4,29.94,East,90,6.0,6.0,11,0.00,,SKC,0.00,VWS V14.00,2013-08-28 18:30:00,
2013-08-28 11:31:00,93.7,31.4,29.94,East,90,6.0,6.0,11,0.00,,SKC,0.00,VWS V14.00,2013-08-28 18:31:00,
2013-08-28 11:32:00,93.7,31.4,29.94,ENE,68,4.9,6.0,11,0.00,,SKC,0.00,VWS V14.00,2013-08-28 18:32:00,
2013-08-28 11:33:00,93.2,31.0,29.94,East,90,4.3,6.3,11,0.00,,SKC,0.00,VWS V14.00,2013-08-28 18:33:00,
2013-08-28 11:34:00,93.7,31.4,29.94,NNE,22,4.9,6.3,11,0.00,,SKC,0.00,VWS V14.00,2013-08-28 18:34:00,
2013-08-28 11:35:00,93.7,31.4,29.94,NNE,22,4.9,6.3,11,0.00,,SKC,0.00,VWS V14.00,2013-08-28 18:35:00,
2013-08-28 11:36:00,93.9,31.5,29.94,SE,135,2.5,4.9,11,0.00,,SKC,0.00,VWS V14.00,2013-08-28 18:36:00,
2013-08-28 11:37:00,93.9,31.5,29.94,ENE,68,3.6,4.9,11,0.00,,SKC,0.00,VWS V14.00,2013-08-28 18:37:00,
2013-08-28 11:38:00,93.2,31.0,29.94,East,90,6.3,6.5,11,0.00,,SKC,0.00,VWS V14.00,2013-08-28 18:38:00,
2013-08-28 11:39:00,92.8,32.8,29.94,East,90,5.4,6.5,12,0.00,,SKC,0.00,VWS V14.00,2013-08-28 18:39:00,
2013-08-28 11:40:00,92.8,32.8,29.94,South,180,0.0,6.5,12,0.00,,SKC,0.00,VWS V14.00,2013-08-28 18:40:00,
2013-08-28 11:42:00,94.3,31.8,29.94,SW,225,0.0,0.0,11,0.00,,SKC,0.00,VWS V14.00,2013-08-28 18:42:00,
2013-08-28 11:43:00,94.3,31.8,29.94,ENE,68,0.0,0.0,11,0.00,,SKC,0.00,VWS V14.00,2013-08-28 18:43:00,
2013-08-28 11:44:00,94.3,31.8,29.94,ENE,68,0.0,0.0,11,0.00,,SKC,0.00,VWS V14.00,2013-08-28 18:44:00,
2013-08-28 11:45:00,94.3,31.8,29.94,SE,135,3.6,3.6,11,0.00,,SKC,0.00,VWS V14.00,2013-08-28 18:45:00,
2013-08-28 11:47:00,93.9,31.5,29.94,SSE,158,2.7,4.3,11,0.00,,SKC,0.00,VWS V14.00,2013-08-28 18:47:00,
2013-08-28 11:48:00,93.9,31.5,29.94,SSE,158,2.7,4.3,11,0.00,,SKC,0.00,VWS V14.00,2013-08-28 18:48:00,
2013-08-28 11:49:00,94.3,31.8,29.94,NNE,22,3.6,5.4,11,0.00,,SKC,0.00,VWS V14.00,2013-08-28 18:49:00,
2013-08-28 11:50:00,94.3,31.8,29.94,SE,135,1.1,5.4,11,0.00,,SKC,0.00,VWS V14.00,2013-08-28 18:50:00,
2013-08-28 11:52:00,94.3,31.8,29.94,East,90,3.6,3.8,11,0.00,,SKC,0.00,VWS V14.00,2013-08-28 18:52:00,
2013-08-28 11:53:00,95.5,32.7,29.94,East,90,3.8,3.8,11,0.00,,SKC,0.00,VWS V14.00,2013-08-28 18:53:00,
2013-08-28 11:54:00,95.5,32.7,29.94,ESE,112,3.1,3.8,11,0.00,,SKC,0.00,VWS V14.00,2013-08-28 18:54:00,
2013-08-28 11:55:00,96.6,33.6,29.94,ESE,112,0.0,3.8,11,0.00,,SKC,0.00,VWS V14.00,2013-08-28 18:55:00,
2013-08-28 11:57:00,97.0,33.8,29.94,SE,135,2.9,2.9,11,0.00,,SKC,0.00,VWS V14.00,2013-08-28 18:57:00,
2013-08-28 11:58:00,97.0,33.8,29.94,ESE,112,5.4,5.4,11,0.00,,SKC,0.00,VWS V14.00,2013-08-28 18:58:00,
2013-08-28 11:59:00,96.4,33.4,29.94,ESE,112,7.6,7.6,11,0.00,,SKC,0.00,VWS V14.00,2013-08-28 18:59:00,
2013-08-28 12:00:00,96.4,33.4,29.94,ESE,112,7.6,7.6,11,0.00,,SKC,0.00,VWS V14.00,2013-08-28 19:00:00,
2013-08-28 12:03:00,93.7,31.4,29.94,SE,135,5.8,9.6,11,0.00,,SKC,0.00,VWS V14.00,2013-08-28 19:03:00,
2013-08-28 12:04:00,93.2,31.0,29.94,ESE,112,4.0,9.6,11,0.00,,SKC,0.00,VWS V14.00,2013-08-28 19:04:00,
2013-08-28 12:05:00,93.9,31.5,29.94,East,90,2.9,9.6,11,0.00,,SKC,0.00,VWS V14.00,2013-08-28 19:05:00,
2013-08-28 12:08:00,95.9,33.0,29.94,South,180,0.0,2.5,11,0.00,,SKC,0.00,VWS V14.00,2013-08-28 19:08:00,
2013-08-28 12:09:00,95.5,32.7,29.94,SE,135,5.4,5.4,11,0.00,,SKC,0.00,VWS V14.00,2013-08-28 19:09:00,
2013-08-28 12:10:00,95.0,32.3,29.94,South,180,4.0,5.4,11,0.00,,SKC,0.00,VWS V14.00,2013-08-28 19:10:00,
2013-08-28 12:13:00,94.8,32.2,29.94,South,180,2.5,2.9,11,0.00,,SKC,0.00,VWS V14.00,2013-08-28 19:13:00,
2013-08-28 12:14:00,94.6,32.0,29.94,SW,225,2.9,4.0,11,0.00,,SKC,0.00,VWS V14.00,2013-08-28 19:14:00,
2013-08-28 12:15:00,94.3,31.8,29.94,SW,225,6.0,6.0,11,0.00,,SKC,0.00,VWS V14.00,2013-08-28 19:15:00,
2013-08-28 12:16:00,94.1,31.6,29.94,SSW,202,3.6,3.6,11,0.00,,SKC,0.00,VWS V14.00,2013-08-28 19:16:00,
2013-08-28 12:18:00,94.1,31.6,29.94,SE,135,4.0,5.8,11,0.00,,SKC,0.00,VWS V14.00,2013-08-28 19:18:00,
2013-08-28 12:19:00,95.0,32.3,29.94,ESE,112,2.7,5.8,11,0.00,,SKC,0.00,VWS V14.00,2013-08-28 19:19:00,
2013-08-28 12:20:00,94.5,31.9,29.94,ESE,112,4.9,7.6,11,0.00,,SKC,0.00,VWS V14.00,2013-08-28 19:20:00,
2013-08-28 12:21:00,94.5,31.9,29.94,SE,135,4.9,7.6,11,0.00,,SKC,0.00,VWS V14.00,2013-08-28 19:21:00,
2013-08-28 12:23:00,93.7,31.4,29.94,SE,135,6.0,6.3,11,0.00,,SKC,0.00,VWS V14.00,2013-08-28 19:23:00,
2013-08-28 12:25:00,94.5,31.9,29.94,SE,135,3.4,6.3,11,0.00,,SKC,0.00,VWS V14.00,2013-08-28 19:25:00,
2013-08-28 12:26:00,94.5,31.9,29.94,SE,135,3.4,6.3,11,0.00,,SKC,0.00,VWS V14.00,2013-08-28 19:26:00,
2013-08-28 12:28:00,95.0,32.3,29.91,SE,135,0.9,5.8,11,0.00,,SKC,0.00,VWS V14.00,2013-08-28 19:28:00,
2013-08-28 12:30:00,95.4,32.6,29.91,SE,135,3.1,5.8,11,0.00,,SKC,0.00,VWS V14.00,2013-08-28 19:30:00,
2013-08-28 12:31:00,95.2,32.5,29.91,SE,135,4.0,4.0,11,0.00,,SKC,0.00,VWS V14.00,2013-08-28 19:31:00,
2013-08-28 12:34:00,97.5,34.2,29.91,NNE,22,2.5,4.3,11,0.00,,SKC,0.00,VWS V14.00,2013-08-28 19:34:00,
2013-08-28 12:35:00,97.7,34.4,29.91,NE,45,2.2,4.9,11,0.00,,SKC,0.00,VWS V14.00,2013-08-28 19:35:00,
2013-08-28 12:36:00,97.7,34.4,29.91,NW,315,2.7,4.9,11,0.00,,SKC,0.00,VWS V14.00,2013-08-28 19:36:00,
2013-08-28 12:39:00,99.3,33.2,29.91,West,270,0.0,3.4,10,0.00,,SKC,0.00,VWS V14.00,2013-08-28 19:39:00,
2013-08-28 12:40:00,98.8,32.8,29.91,East,90,6.0,6.0,10,0.00,,SKC,0.00,VWS V14.00,2013-08-28 19:40:00,
2013-08-28 12:41:00,98.8,32.8,29.91,East,90,6.3,6.3,10,0.00,,SKC,0.00,VWS V14.00,2013-08-28 19:41:00,
2013-08-28 12:44:00,97.0,33.8,29.91,SE,135,4.0,8.7,11,0.00,,SKC,0.00,VWS V14.00,2013-08-28 19:44:00,
2013-08-28 12:45:00,97.0,33.8,29.91,SE,135,5.4,8.7,11,0.00,,SKC,0.00,VWS V14.00,2013-08-28 19:45:00,
2013-08-28 12:46:00,97.0,33.8,29.91,SE,135,2.5,5.4,11,0.00,,SKC,0.00,VWS V14.00,2013-08-28 19:46:00,
2013-08-28 12:47:00,96.6,33.6,29.91,South,180,4.0,7.8,11,0.00,,SKC,0.00,VWS V14.00,2013-08-28 19:47:00,
2013-08-28 12:49:00,96.3,33.3,29.91,East,90,6.5,7.8,11,0.00,,SKC,0.00,VWS V14.00,2013-08-28 19:49:00,
2013-08-28 12:50:00,96.6,33.6,29.91,NNW,338,3.6,7.8,11,0.00,,SKC,0.00,VWS V14.00,2013-08-28 19:50:00,
2013-08-28 12:51:00,96.6,33.6,29.91,NW,315,3.4,3.6,11,0.00,,SKC,0.00,VWS V14.00,2013-08-28 19:51:00,
2013-08-28 12:52:00,97.3,34.1,29.91,WNW,292,2.9,3.6,11,0.00,,SKC,0.00,VWS V14.00,2013-08-28 19:52:00,
2013-08-28 12:54:00,97.0,33.8,29.91,South,180,4.3,4.9,11,0.00,,SKC,0.00,VWS V14.00,2013-08-28 19:54:00,
2013-08-28 12:55:00,96.4,33.4,29.91,WSW,248,4.7,5.8,11,0.00,,SKC,0.00,VWS V14.00,2013-08-28 19:55:00,
2013-08-28 12:56:00,96.4,33.4,29.91,West,270,2.7,5.8,11,0.00,,SKC,0.00,VWS V14.00,2013-08-28 19:56:00,
2013-08-28 12:57:00,96.4,33.4,29.91,West,270,4.9,5.8,11,0.00,,SKC,0.00,VWS V14.00,2013-08-28 19:57:00,
2013-08-28 12:59:00,96.4,33.4,29.91,WSW,248,7.2,7.2,11,0.00,,SKC,0.00,VWS V14.00,2013-08-28 19:59:00,
2013-08-28 13:00:00,96.4,33.4,29.91,WSW,248,7.2,7.2,11,0.00,,SKC,0.00,VWS V14.00,2013-08-28 20:00:00,
2013-08-28 13:01:00,96.3,33.3,29.91,West,270,3.1,3.8,11,0.00,,SKC,0.00,VWS V14.00,2013-08-28 20:01:00,
2013-08-28 13:02:00,96.3,33.3,29.91,West,270,3.1,3.8,11,0.00,,SKC,0.00,VWS V14.00,2013-08-28 20:02:00,
2013-08-28 13:04:00,98.4,34.9,29.91,SW,225,0.9,3.8,11,0.00,,SKC,0.00,VWS V14.00,2013-08-28 20:04:00,
2013-08-28 13:05:00,99.1,33.1,29.91,SE,135,0.0,3.8,10,0.00,,SKC,0.00,VWS V14.00,2013-08-28 20:05:00,
2013-08-28 13:06:00,99.7,33.5,29.91,East,90,0.0,3.8,10,0.00,,SKC,0.00,VWS V14.00,2013-08-28 20:06:00,
2013-08-28 13:08:00,99.7,33.5,29.91,SE,135,3.6,3.8,10,0.00,,SKC,0.00,VWS V14.00,2013-08-28 20:08:00,
2013-08-28 13:09:00,100.6,34.2,29.91,ENE,68,2.9,3.8,10,0.00,,SKC,0.00,VWS V14.00,2013-08-28 20:09:00,
2013-08-28 13:10:00,100.8,34.3,29.91,East,90,3.6,3.8,10,0.00,,SKC,0.00,VWS V14.00,2013-08-28 20:10:00,
2013-08-28 13:11:00,100.8,34.3,29.91,East,90,3.6,3.8,10,0.00,,SKC,0.00,VWS V14.00,2013-08-28 20:11:00,
2013-08-28 13:12:00,100.8,34.3,29.91,East,90,3.6,3.8,10,0.00,,SKC,0.00,VWS V14.00,2013-08-28 20:12:00,
2013-08-28 13:13:00,100.8,34.3,29.91,NE,45,4.9,4.9,10,0.00,,SKC,0.00,VWS V14.00,2013-08-28 20:13:00,
2013-08-28 13:14:00,100.8,34.3,29.91,NE,45,4.9,4.9,10,0.00,,SKC,0.00,VWS V14.00,2013-08-28 20:14:00,
2013-08-28 13:15:00,100.8,34.3,29.91,ENE,68,4.9,4.9,10,0.00,,SKC,0.00,VWS V14.00,2013-08-28 20:15:00,
2013-08-28 13:16:00,99.7,33.5,29.91,East,90,4.0,4.0,10,0.00,,SKC,0.00,VWS V14.00,2013-08-28 20:16:00,
2013-08-28 13:17:00,99.7,33.5,29.91,NE,45,4.3,4.3,10,0.00,,SKC,0.00,VWS V14.00,2013-08-28 20:17:00,
2013-08-28 13:19:00,99.0,33.0,29.91,NNW,338,3.8,7.6,10,0.00,,SKC,0.00,VWS V14.00,2013-08-28 20:19:00,
2013-08-28 13:20:00,99.0,33.0,29.91,North,0,5.4,7.6,10,0.00,,SKC,0.00,VWS V14.00,2013-08-28 20:20:00,
2013-08-28 13:21:00,98.6,32.7,29.91,NW,315,3.8,4.0,10,0.00,,SKC,0.00,VWS V14.00,2013-08-28 20:21:00,
2013-08-28 13:22:00,99.0,33.0,29.91,North,0,5.8,5.8,10,0.00,,SKC,0.00,VWS V14.00,2013-08-28 20:22:00,
2013-08-28 13:25:00,99.3,33.2,29.91,WNW,292,4.3,6.0,10,0.00,,SKC,0.00,VWS V14.00,2013-08-28 20:25:00,
2013-08-28 13:26:00,99.3,33.2,29.91,NW,315,4.0,6.0,10,0.00,,SKC,0.00,VWS V14.00,2013-08-28 20:26:00,
2013-08-28 13:27:00,99.3,33.2,29.91,NW,315,4.0,6.0,10,0.00,,SKC,0.00,VWS V14.00,2013-08-28 20:27:00,
2013-08-28 13:30:00,99.3,33.2,29.91,WNW,292,5.4,6.0,10,0.00,,SKC,0.00,VWS V14.00,2013-08-28 20:30:00,
2013-08-28 13:31:00,99.3,33.2,29.91,West,270,5.6,6.0,10,0.00,,SKC,0.00,VWS V14.00,2013-08-28 20:31:00,
2013-08-28 13:32:00,99.3,33.2,29.91,West,270,5.6,6.0,10,0.00,,SKC,0.00,VWS V14.00,2013-08-28 20:32:00,
2013-08-28 13:35:00,97.2,34.0,29.91,WSW,248,6.3,9.8,11,0.00,,SKC,0.00,VWS V14.00,2013-08-28 20:35:00,
2013-08-28 13:36:00,96.8,33.7,29.91,West,270,5.4,9.8,11,0.00,,SKC,0.00,VWS V14.00,2013-08-28 20:36:00,
2013-08-28 13:37:00,97.5,34.2,29.91,West,270,4.5,5.8,11,0.00,,SKC,0.00,VWS V14.00,2013-08-28 20:37:00,
2013-08-28 13:40:00,99.0,33.0,29.91,WNW,292,2.9,5.8,10,0.00,,SKC,0.00,VWS V14.00,2013-08-28 20:40:00,
2013-08-28 13:41:00,98.4,34.9,29.91,WNW,292,4.9,6.3,11,0.00,,SKC,0.00,VWS V14.00,2013-08-28 20:41:00,
2013-08-28 13:42:00,97.7,34.4,29.91,SW,225,6.0,7.4,11,0.00,,SKC,0.00,VWS V14.00,2013-08-28 20:42:00,
2013-08-28 13:45:00,97.2,34.0,29.88,WNW,292,5.6,8.7,11,0.00,,SKC,0.00,VWS V14.00,2013-08-28 20:45:00,
2013-08-28 13:46:00,97.2,34.0,29.88,WSW,248,10.1,10.1,11,0.00,,SKC,0.00,VWS V14.00,2013-08-28 20:46:00,
2013-08-28 13:47:00,97.2,34.0,29.88,West,270,5.8,10.1,11,0.00,,SKC,0.00,VWS V14.00,2013-08-28 20:47:00,
2013-08-28 13:50:00,96.6,33.6,29.88,SW,225,5.6,10.1,11,0.00,,SKC,0.00,VWS V14.00,2013-08-28 20:50:00,
2013-08-28 13:51:00,96.8,33.7,29.88,SW,225,4.9,6.3,11,0.00,,SKC,0.00,VWS V14.00,2013-08-28 20:51:00,
2013-08-28 13:52:00,96.6,33.6,29.88,West,270,4.9,6.3,11,0.00,,SKC,0.00,VWS V14.00,2013-08-28 20:52:00,
2013-08-28 13:55:00,98.2,34.8,29.88,WNW,292,4.3,7.2,11,0.00,,SKC,0.00,VWS V14.00,2013-08-28 20:55:00,
2013-08-28 13:56:00,98.2,34.8,29.88,NW,315,5.8,7.2,11,0.00,,SKC,0.00,VWS V14.00,2013-08-28 20:56:00,
2013-08-28 13:57:00,99.5,33.4,29.88,NW,315,4.0,7.2,10,0.00,,SKC,0.00,VWS V14.00,2013-08-28 20:57:00,
2013-08-28 14:00:00,100.9,34.5,29.88,NNE,22,0.9,7.2,10,0.00,,SKC,0.00,VWS V14.00,2013-08-28 21:00:00,
2013-08-28 14:01:00,100.9,34.5,29.88,NNE,22,0.9,7.2,10,0.00,,SKC,0.00,VWS V14.00,2013-08-28 21:01:00,
2013-08-28 14:02:00,101.1,34.6,29.88,NNE,22,3.1,6.0,10,0.00,,SKC,0.00,VWS V14.00,2013-08-28 21:02:00,
2013-08-28 14:03:00,101.1,34.6,29.88,NNE,22,3.1,6.0,10,0.00,,SKC,0.00,VWS V14.00,2013-08-28 21:03:00,
2013-08-28 14:05:00,102.2,32.8,29.88,SE,135,0.0,6.0,9,0.00,,SKC,0.00,VWS V14.00,2013-08-28 21:05:00,
2013-08-28 14:06:00,102.7,33.2,29.88,NNW,338,2.5,3.6,9,0.00,,SKC,0.00,VWS V14.00,2013-08-28 21:06:00,
2013-08-28 14:07:00,102.7,33.2,29.88,NNW,338,2.7,3.6,9,0.00,,SKC,0.00,VWS V14.00,2013-08-28 21:07:00,
2013-08-28 14:08:00,103.1,33.4,29.88,East,90,3.4,3.6,9,0.00,,SKC,0.00,VWS V14.00,2013-08-28 21:08:00,
2013-08-28 14:09:00,102.0,35.3,29.88,NE,45,4.3,5.8,10,0.00,,SKC,0.00,VWS V14.00,2013-08-28 21:09:00,
2013-08-28 14:10:00,102.0,35.3,29.88,East,90,3.1,5.8,10,0.00,,SKC,0.00,VWS V14.00,2013-08-28 21:10:00,
2013-08-28 14:11:00,102.4,32.9,29.88,ENE,68,1.6,2.9,9,0.00,,SKC,0.00,VWS V14.00,2013-08-28 21:11:00,
2013-08-28 14:12:00,102.4,32.9,29.88,ESE,112,1.6,3.1,9,0.00,,SKC,0.00,VWS V14.00,2013-08-28 21:12:00,
2013-08-28 14:13:00,103.1,33.4,29.88,South,180,0.9,3.1,9,0.00,,SKC,0.00,VWS V14.00,2013-08-28 21:13:00,
2013-08-28 14:15:00,102.4,32.9,29.88,SW,225,2.0,3.8,9,0.00,,SKC,0.00,VWS V14.00,2013-08-28 21:15:00,
2013-08-28 14:17:00,101.5,34.9,29.88,SW,225,2.5,4.5,10,0.00,,SKC,0.00,VWS V14.00,2013-08-28 21:17:00,
2013-08-28 14:18:00,102.2,32.8,29.88,SW,225,0.9,4.5,9,0.00,,SKC,0.00,VWS V14.00,2013-08-28 21:18:00,
2013-08-28 14:20:00,104.0,34.1,29.88,North,0,0.0,4.5,9,0.00,,SKC,0.00,VWS V14.00,2013-08-28 21:20:00,
2013-08-28 14:22:00,103.3,33.6,29.88,WSW,248,6.3,6.3,9,0.00,,SKC,0.00,VWS V14.00,2013-08-28 21:22:00,
2013-08-28 14:23:00,103.3,33.6,29.88,West,270,4.9,6.3,9,0.00,,SKC,0.00,VWS V14.00,2013-08-28 21:23:00,
2013-08-28 14:24:00,102.4,32.9,29.88,West,270,4.3,6.3,9,0.00,,SKC,0.00,VWS V14.00,2013-08-28 21:24:00,
2013-08-28 14:25:00,102.2,32.8,29.88,SW,225,3.8,6.3,9,0.00,,SKC,0.00,VWS V14.00,2013-08-28 21:25:00,
2013-08-28 14:27:00,101.3,34.7,29.88,SW,225,3.4,6.0,10,0.00,,SKC,0.00,VWS V14.00,2013-08-28 21:27:00,
2013-08-28 14:28:00,101.3,34.7,29.88,SW,225,3.4,6.0,10,0.00,,SKC,0.00,VWS V14.00,2013-08-28 21:28:00,
2013-08-28 14:29:00,102.2,32.8,29.88,SE,135,1.6,6.0,9,0.00,,SKC,0.00,VWS V14.00,2013-08-28 21:29:00,
2013-08-28 14:30:00,102.6,33.0,29.88,South,180,2.7,6.0,9,0.00,,SKC,0.00,VWS V14.00,2013-08-28 21:30:00,
2013-08-28 14:33:00,101.7,35.0,29.88,WSW,248,3.6,6.0,10,0.00,,SKC,0.00,VWS V14.00,2013-08-28 21:33:00,
2013-08-28 14:34:00,101.1,34.6,29.88,SW,225,5.6,6.0,10,0.00,,SKC,0.00,VWS V14.00,2013-08-28 21:34:00,
2013-08-28 14:35:00,101.7,35.0,29.88,NNW,338,4.0,6.0,10,0.00,,SKC,0.00,VWS V14.00,2013-08-28 21:35:00,
2013-08-28 14:38:00,101.8,35.1,29.88,NW,315,2.5,5.6,10,0.00,,SKC,0.00,VWS V14.00,2013-08-28 21:38:00,
2013-08-28 14:40:00,102.6,33.0,29.88,North,0,3.4,5.6,9,0.00,,SKC,0.00,VWS V14.00,2013-08-28 21:40:00,
2013-08-28 14:41:00,102.0,35.3,29.88,NW,315,3.8,5.8,10,0.00,,SKC,0.00,VWS V14.00,2013-08-28 21:41:00,
2013-08-28 14:43:00,102.2,32.8,29.88,NW,315,5.6,5.8,9,0.00,,SKC,0.00,VWS V14.00,2013-08-28 21:43:00,
2013-08-28 14:44:00,102.0,35.3,29.88,WNW,292,8.5,8.5,10,0.00,,SKC,0.00,VWS V14.00,2013-08-28 21:44:00,
2013-08-28 14:45:00,100.2,33.9,29.88,NW,315,6.3,10.1,10,0.00,,SKC,0.00,VWS V14.00,2013-08-28 21:45:00,
2013-08-28 14:46:00,100.2,33.9,29.88,NW,315,6.3,10.1,10,0.00,,SKC,0.00,VWS V14.00,2013-08-28 21:46:00,
2013-08-28 14:48:00,98.8,32.8,29.88,NW,315,10.1,10.1,10,0.00,,SKC,0.00,VWS V14.00,2013-08-28 21:48:00,
2013-08-28 14:49:00,97.5,34.2,29.88,WNW,292,10.5,12.5,11,0.00,,SKC,0.00,VWS V14.00,2013-08-28 21:49:00,
2013-08-28 14:50:00,97.0,33.8,29.88,NW,315,11.0,12.5,11,0.00,,SKC,0.00,VWS V14.00,2013-08-28 21:50:00,
2013-08-28 14:51:00,97.0,33.8,29.88,NW,315,11.0,12.5,11,0.00,,SKC,0.00,VWS V14.00,2013-08-28 21:51:00,
2013-08-28 14:53:00,96.3,33.3,29.88,North,0,5.4,9.0,11,0.00,,SKC,0.00,VWS V14.00,2013-08-28 21:53:00,
2013-08-28 14:54:00,95.9,33.0,29.88,NW,315,10.3,10.3,11,0.00,,SKC,0.00,VWS V14.00,2013-08-28 21:54:00,
2013-08-28 14:55:00,96.3,33.3,29.88,WNW,292,7.2,10.3,11,0.00,,SKC,0.00,VWS V14.00,2013-08-28 21:55:00,
2013-08-28 14:56:00,95.4,32.6,29.88,NW,315,8.7,10.5,11,0.00,,SKC,0.00,VWS V14.00,2013-08-28 21:56:00,
2013-08-28 14:58:00,95.9,33.0,29.88,NW,315,8.5,10.5,11,0.00,,SKC,0.00,VWS V14.00,2013-08-28 21:58:00,
2013-08-28 15:00:00,96.3,33.3,29.88,WNW,292,6.5,10.5,11,0.00,,SKC,0.00,VWS V14.00,2013-08-28 22:00:00,
2013-08-28 15:01:00,95.9,33.0,29.88,NNW,338,6.3,9.8,11,0.00,,SKC,0.00,VWS V14.00,2013-08-28 22:01:00,
2013-08-28 15:03:00,97.5,34.2,29.88,SW,225,2.5,9.8,11,0.00,,SKC,0.00,VWS V14.00,2013-08-28 22:03:00,
2013-08-28 15:05:00,97.5,34.2,29.88,SW,225,2.5,9.8,11,0.00,,SKC,0.00,VWS V14.00,2013-08-28 22:05:00,
2013-08-28 15:06:00,98.8,32.8,29.88,WNW,292,5.6,5.6,10,0.00,,SKC,0.00,VWS V14.00,2013-08-28 22:06:00,
2013-08-28 15:08:00,98.8,32.8,29.88,North,0,3.6,6.5,10,0.00,,SKC,0.00,VWS V14.00,2013-08-28 22:08:00,
2013-08-28 15:09:00,98.8,32.8,29.88,North,0,3.6,6.5,10,0.00,,SKC,0.00,VWS V14.00,2013-08-28 22:09:00,
2013-08-28 15:10:00,98.8,32.8,29.88,NNW,338,4.0,6.5,10,0.00,,SKC,0.00,VWS V14.00,2013-08-28 22:10:00,
2013-08-28 15:13:00,98.4,34.9,29.88,North,0,3.6,6.0,11,0.00,,SKC,0.00,VWS V14.00,2013-08-28 22:13:00,
2013-08-28 15:14:00,98.4,34.9,29.88,NNW,338,5.8,6.0,11,0.00,,SKC,0.00,VWS V14.00,2013-08-28 22:14:00,
2013-08-28 15:15:00,97.9,34.5,29.88,North,0,5.4,7.4,11,0.00,,SKC,0.00,VWS V14.00,2013-08-28 22:15:00,
2013-08-28 15:18:00,99.0,33.0,29.88,North,0,4.3,7.6,10,0.00,,SKC,0.00,VWS V14.00,2013-08-28 22:18:00,
2013-08-28 15:19:00,99.0,33.0,29.88,North,0,6.3,7.6,10,0.00,,SKC,0.00,VWS V14.00,2013-08-28 22:19:00,
2013-08-28 15:20:00,99.0,33.0,29.88,North,0,7.8,7.8,10,0.00,,SKC,0.00,VWS V14.00,2013-08-28 22:20:00,
2013-08-28 15:22:00,97.9,34.5,29.88,NW,315,4.9,6.0,11,0.00,,SKC,0.00,VWS V14.00,2013-08-28 22:22:00,
2013-08-28 15:24:00,99.3,33.2,29.88,NE,45,2.9,6.0,10,0.00,,SKC,0.00,VWS V14.00,2013-08-28 22:24:00,
2013-08-28 15:25:00,99.0,33.0,29.88,NE,45,4.3,7.6,10,0.00,,SKC,0.00,VWS V14.00,2013-08-28 22:25:00,
2013-08-28 15:26:00,99.3,33.2,29.88,NE,45,5.8,5.8,10,0.00,,SKC,0.00,VWS V14.00,2013-08-28 22:26:00,
2013-08-28 15:27:00,99.5,33.4,29.88,East,90,4.0,5.8,10,0.00,,SKC,0.00,VWS V14.00,2013-08-28 22:27:00,
2013-08-28 15:29:00,97.9,34.5,29.88,NNW,338,7.8,20.1,11,0.00,,SKC,0.00,VWS V14.00,2013-08-28 22:29:00,
2013-08-28 15:30:00,98.4,34.9,29.88,North,0,5.8,20.1,11,0.00,,SKC,0.00,VWS V14.00,2013-08-28 22:30:00,
2013-08-28 15:31:00,98.4,34.9,29.88,North,0,5.8,20.1,11,0.00,,SKC,0.00,VWS V14.00,2013-08-28 22:31:00,
2013-08-28 15:32:00,98.2,34.8,29.88,North,0,6.5,8.5,11,0.00,,SKC,0.00,VWS V14.00,2013-08-28 22:32:00,
2013-08-28 15:34:00,98.6,32.7,29.88,West,270,3.6,8.5,10,0.00,,SKC,0.00,VWS V14.00,2013-08-28 22:34:00,
2013-08-28 15:35:00,98.6,32.7,29.88,WNW,292,3.8,8.5,10,0.00,,SKC,0.00,VWS V14.00,2013-08-28 22:35:00,
2013-08-28 15:36:00,98.6,32.7,29.88,WNW,292,13.2,13.2,10,0.00,,SKC,0.00,VWS V14.00,2013-08-28 22:36:00,
2013-08-28 15:38:00,96.4,33.4,29.88,SW,225,7.6,17.0,11,0.00,,SKC,0.00,VWS V14.00,2013-08-28 22:38:00,
2013-08-28 15:39:00,96.4,33.4,29.88,SW,225,6.5,17.0,11,0.00,,SKC,0.00,VWS V14.00,2013-08-28 22:39:00,
2013-08-28 15:40:00,95.9,33.0,29.88,SW,225,9.8,17.0,11,0.00,,SKC,0.00,VWS V14.00,2013-08-28 22:40:00,
2013-08-28 15:41:00,95.9,33.0,29.88,SW,225,9.8,17.0,11,0.00,,SKC,0.00,VWS V14.00,2013-08-28 22:41:00,
2013-08-28 15:43:00,95.5,32.7,29.88,WSW,248,6.5,9.8,11,0.00,,SKC,0.00,VWS V14.00,2013-08-28 22:43:00,
2013-08-28 15:44:00,95.5,32.7,29.88,SW,225,6.5,9.8,11,0.00,,SKC,0.00,VWS V14.00,2013-08-28 22:44:00,
2013-08-28 15:45:00,95.5,32.7,29.88,WNW,292,10.5,10.5,11,0.00,,SKC,0.00,VWS V14.00,2013-08-28 22:45:00,
2013-08-28 15:46:00,95.2,32.5,29.88,WNW,292,9.6,10.5,11,0.00,,SKC,0.00,VWS V14.00,2013-08-28 22:46:00,
2013-08-28 15:48:00,94.8,32.2,29.88,WNW,292,10.5,10.7,11,0.00,,SKC,0.00,VWS V14.00,2013-08-28 22:48:00,
2013-08-28 15:49:00,95.2,32.5,29.88,WNW,292,8.1,10.7,11,0.00,,SKC,0.00,VWS V14.00,2013-08-28 22:49:00,
2013-08-28 15:50:00,94.8,32.2,29.88,West,270,7.6,11.0,11,0.00,,SKC,0.00,VWS V14.00,2013-08-28 22:50:00,
2013-08-28 15:51:00,94.8,32.2,29.88,WNW,292,9.8,9.8,11,0.00,,SKC,0.00,VWS V14.00,2013-08-28 22:51:00,
2013-08-28 15:52:00,94.6,32.0,29.88,WNW,292,10.3,10.3,11,0.00,,SKC,0.00,VWS V14.00,2013-08-28 22:52:00,
2013-08-28 15:53:00,94.5,31.9,29.88,West,270,11.0,11.0,11,0.00,,SKC,0.00,VWS V14.00,2013-08-28 22:53:00,
2013-08-28 15:54:00,93.9,31.5,29.88,WNW,292,12.5,12.5,11,0.00,,SKC,0.00,VWS V14.00,2013-08-28 22:54:00,
2013-08-28 15:55:00,93.7,31.4,29.88,West,270,10.5,15.4,11,0.00,,SKC,0.00,VWS V14.00,2013-08-28 22:55:00,
2013-08-28 15:56:00,93.6,31.2,29.88,WNW,292,11.2,14.8,11,0.00,,SKC,0.00,VWS V14.00,2013-08-28 22:56:00,
2013-08-28 15:57:00,93.7,31.4,29.88,WNW,292,10.3,14.8,11,0.00,,SKC,0.00,VWS V14.00,2013-08-28 22:57:00,
2013-08-28 15:59:00,93.6,31.2,29.88,NW,315,10.7,14.8,11,0.00,,SKC,0.00,VWS V14.00,2013-08-28 22:59:00,
2013-08-28 16:00:00,93.6,31.2,29.88,WNW,292,12.3,14.8,11,0.00,,SKC,0.00,VWS V14.00,2013-08-28 23:00:00,
2013-08-28 16:01:00,93.6,31.2,29.88,WNW,292,8.5,14.8,11,0.00,,SKC,0.00,VWS V14.00,2013-08-28 23:01:00,
2013-08-28 16:02:00,93.0,33.0,29.88,WNW,292,10.5,13.2,12,0.00,,SKC,0.00,VWS V14.00,2013-08-28 23:02:00,
2013-08-28 16:04:00,93.0,33.0,29.88,WNW,292,13.0,13.2,12,0.00,,SKC,0.00,VWS V14.00,2013-08-28 23:04:00,
2013-08-28 16:05:00,93.0,33.0,29.88,WNW,292,6.5,13.2,12,0.00,,SKC,0.00,VWS V14.00,2013-08-28 23:05:00,
2013-08-28 16:06:00,92.7,32.7,29.88,WNW,292,8.7,10.3,12,0.00,,SKC,0.00,VWS V14.00,2013-08-28 23:06:00,
2013-08-28 16:07:00,92.8,32.8,29.88,WNW,292,10.5,11.0,12,0.00,,SKC,0.00,VWS V14.00,2013-08-28 23:07:00,
2013-08-28 16:09:00,92.5,32.5,29.88,WNW,292,7.4,11.9,12,0.00,,SKC,0.00,VWS V14.00,2013-08-28 23:09:00,
2013-08-28 16:10:00,92.5,32.5,29.88,NW,315,9.8,11.9,12,0.00,,SKC,0.00,VWS V14.00,2013-08-28 23:10:00,
2013-08-28 16:11:00,92.5,32.5,29.88,NW,315,9.8,11.9,12,0.00,,SKC,0.00,VWS V14.00,2013-08-28 23:11:00,
2013-08-28 16:12:00,92.3,32.4,29.88,West,270,7.2,10.1,12,0.00,,SKC,0.00,VWS V14.00,2013-08-28 23:12:00,
2013-08-28 16:13:00,92.3,32.4,29.88,West,270,6.0,10.1,12,0.00,,SKC,0.00,VWS V14.00,2013-08-28 23:13:00,
2013-08-28 16:14:00,92.3,32.4,29.88,WSW,248,7.4,10.1,12,0.00,,SKC,0.00,VWS V14.00,2013-08-28 23:14:00,
2013-08-28 16:15:00,92.3,32.4,29.88,West,270,4.0,10.1,12,0.00,,SKC,0.00,VWS V14.00,2013-08-28 23:15:00,
2013-08-28 16:16:00,91.9,32.1,29.88,WNW,292,7.8,10.5,12,0.00,,SKC,0.00,VWS V14.00,2013-08-28 23:16:00,
2013-08-28 16:17:00,91.9,32.1,29.88,West,270,7.8,10.5,12,0.00,,SKC,0.00,VWS V14.00,2013-08-28 23:17:00,
2013-08-28 16:18:00,91.9,32.1,29.88,West,270,7.8,10.5,12,0.00,,SKC,0.00,VWS V14.00,2013-08-28 23:18:00,
2013-08-28 16:19:00,92.5,32.5,29.88,NW,315,5.6,10.5,12,0.00,,SKC,0.00,VWS V14.00,2013-08-28 23:19:00,
2013-08-28 16:20:00,92.5,32.5,29.88,NW,315,5.6,10.5,12,0.00,,SKC,0.00,VWS V14.00,2013-08-28 23:20:00,
2013-08-28 16:22:00,92.3,32.4,29.88,WNW,292,10.7,10.7,12,0.00,,SKC,0.00,VWS V14.00,2013-08-28 23:22:00,
2013-08-28 16:23:00,91.8,32.0,29.88,WNW,292,8.7,12.3,12,0.00,,SKC,0.00,VWS V14.00,2013-08-28 23:23:00,
2013-08-28 16:25:00,92.5,32.5,29.88,WNW,292,7.6,12.3,12,0.00,,SKC,0.00,VWS V14.00,2013-08-28 23:25:00,
2013-08-28 16:27:00,92.1,32.3,29.88,WNW,292,6.7,9.0,12,0.00,,SKC,0.00,VWS V14.00,2013-08-28 23:27:00,
2013-08-28 16:28:00,91.2,31.6,29.88,WNW,292,11.0,12.1,12,0.00,,SKC,0.00,VWS V14.00,2013-08-28 23:28:00,
2013-08-28 16:29:00,91.2,31.6,29.88,WNW,292,10.5,12.1,12,0.00,,SKC,0.00,VWS V14.00,2013-08-28 23:29:00,
2013-08-28 16:30:00,91.2,31.6,29.88,WNW,292,8.7,12.1,12,0.00,,SKC,0.00,VWS V14.00,2013-08-28 23:30:00,
2013-08-28 16:32:00,91.6,31.9,29.88,NW,315,6.9,8.1,12,0.00,,SKC,0.00,VWS V14.00,2013-08-28 23:32:00,
2013-08-28 16:34:00,91.9,32.1,29.88,West,270,4.9,9.6,12,0.00,,SKC,0.00,VWS V14.00,2013-08-28 23:34:00,
2013-08-28 16:35:00,91.8,32.0,29.88,West,270,7.4,9.6,12,0.00,,SKC,0.00,VWS V14.00,2013-08-28 23:35:00,
2013-08-28 16:37:00,91.8,32.0,29.88,West,270,8.7,8.7,12,0.00,,SKC,0.00,VWS V14.00,2013-08-28 23:37:00,
2013-08-28 16:38:00,91.8,32.0,29.88,WNW,292,6.0,10.1,12,0.00,,SKC,0.00,VWS V14.00,2013-08-28 23:38:00,
2013-08-28 16:39:00,91.6,31.9,29.88,WNW,292,8.7,10.3,12,0.00,,SKC,0.00,VWS V14.00,2013-08-28 23:39:00,
2013-08-28 16:40:00,91.4,31.7,29.88,NW,315,7.6,10.3,12,0.00,,SKC,0.00,VWS V14.00,2013-08-28 23:40:00,
2013-08-28 16:42:00,91.4,31.7,29.88,NW,315,10.3,10.3,12,0.00,,SKC,0.00,VWS V14.00,2013-08-28 23:42:00,
2013-08-28 16:43:00,91.2,31.6,29.88,West,270,11.0,11.0,12,0.00,,SKC,0.00,VWS V14.00,2013-08-28 23:43:00,
2013-08-28 16:44:00,91.2,31.6,29.88,West,270,11.0,11.0,12,0.00,,SKC,0.00,VWS V14.00,2013-08-28 23:44:00,
2013-08-28 16:45:00,91.2,31.6,29.88,WNW,292,8.1,11.0,12,0.00,,SKC,0.00,VWS V14.00,2013-08-28 23:45:00,
2013-08-28 16:47:00,90.9,31.3,29.88,WNW,292,11.0,11.0,12,0.00,,SKC,0.00,VWS V14.00,2013-08-28 23:47:00,
2013-08-28 16:49:00,90.7,26.7,29.88,WNW,292,10.7,11.0,10,0.00,,SKC,0.00,VWS V14.00,2013-08-28 23:49:00,
2013-08-28 16:50:00,90.7,26.7,29.88,WNW,292,6.0,11.0,10,0.00,,SKC,0.00,VWS V14.00,2013-08-28 23:50:00,
2013-08-28 16:52:00,90.7,26.7,29.88,West,270,5.4,8.7,10,0.00,,SKC,0.00,VWS V14.00,2013-08-28 23:52:00,
2013-08-28 16:54:00,90.7,26.7,29.88,West,270,7.2,8.7,10,0.00,,SKC,0.00,VWS V14.00,2013-08-28 23:54:00,
2013-08-28 16:55:00,91.0,31.4,29.88,West,270,6.0,9.8,12,0.00,,SKC,0.00,VWS V14.00,2013-08-28 23:55:00,
2013-08-28 16:56:00,91.0,31.4,29.88,West,270,6.3,9.8,12,0.00,,SKC,0.00,VWS V14.00,2013-08-28 23:56:00,
2013-08-28 16:57:00,90.7,31.2,29.88,West,270,7.4,13.2,12,0.00,,SKC,0.00,VWS V14.00,2013-08-28 23:57:00,
2013-08-28 16:59:00,90.1,26.3,29.88,WNW,292,10.7,13.2,10,0.00,,SKC,0.00,VWS V14.00,2013-08-28 23:59:00,
2013-08-28 17:00:00,90.1,26.3,29.88,West,270,8.1,13.2,10,0.00,,SKC,0.00,VWS V14.00,2013-08-29 00:00:00,
2013-08-28 17:01:00,90.1,26.3,29.88,West,270,10.3,10.3,10,0.00,,SKC,0.00,VWS V14.00,2013-08-29 00:01:00,
2013-08-28 17:02:00,90.1,26.3,29.88,WNW,292,8.5,10.3,10,0.00,,SKC,0.00,VWS V14.00,2013-08-29 00:02:00,
2013-08-28 17:05:00,90.5,26.6,29.88,West,270,3.4,10.5,10,0.00,,SKC,0.00,VWS V14.00,2013-08-29 00:05:00,
2013-08-28 17:06:00,90.5,26.6,29.88,West,270,5.8,5.8,10,0.00,,SKC,0.00,VWS V14.00,2013-08-29 00:06:00,
2013-08-28 17:07:00,90.5,26.6,29.88,WNW,292,6.3,6.3,10,0.00,,SKC,0.00,VWS V14.00,2013-08-29 00:07:00,
2013-08-28 17:10:00,90.3,26.4,29.88,WNW,292,5.8,8.5,10,0.00,,SKC,0.00,VWS V14.00,2013-08-29 00:10:00,
2013-08-28 17:11:00,90.5,31.0,29.88,WNW,292,6.0,6.0,12,0.00,,SKC,0.00,VWS V14.00,2013-08-29 00:11:00,
2013-08-28 17:12:00,90.5,31.0,29.88,WNW,292,6.0,6.0,12,0.00,,SKC,0.00,VWS V14.00,2013-08-29 00:12:00,
2013-08-28 17:13:00,90.5,31.0,29.88,WNW,292,7.6,7.6,12,0.00,,SKC,0.00,VWS V14.00,2013-08-29 00:13:00,
2013-08-28 17:15:00,89.8,26.0,29.91,WNW,292,8.1,10.3,10,0.00,,SKC,0.00,VWS V14.00,2013-08-29 00:15:00,
2013-08-28 17:16:00,89.8,26.0,29.91,West,270,7.8,10.3,10,0.00,,SKC,0.00,VWS V14.00,2013-08-29 00:16:00,
2013-08-28 17:17:00,89.6,25.9,29.91,WNW,292,9.8,9.8,10,0.00,,SKC,0.00,VWS V14.00,2013-08-29 00:17:00,
2013-08-28 17:18:00,89.6,25.9,29.91,West,270,8.5,9.8,10,0.00,,SKC,0.00,VWS V14.00,2013-08-29 00:18:00,
2013-08-28 17:19:00,89.6,25.9,29.91,West,270,8.5,9.8,10,0.00,,SKC,0.00,VWS V14.00,2013-08-29 00:19:00,
2013-08-28 17:20:00,89.6,25.9,29.91,West,270,8.1,9.8,10,0.00,,SKC,0.00,VWS V14.00,2013-08-29 00:20:00,
2013-08-28 17:21:00,89.6,25.9,29.91,West,270,8.1,9.8,10,0.00,,SKC,0.00,VWS V14.00,2013-08-29 00:21:00,
2013-08-28 17:22:00,89.4,25.8,29.91,WNW,292,7.4,8.1,10,0.00,,SKC,0.00,VWS V14.00,2013-08-29 00:22:00,
2013-08-28 17:23:00,89.4,25.8,29.91,West,270,5.8,8.1,10,0.00,,SKC,0.00,VWS V14.00,2013-08-29 00:23:00,
2013-08-28 17:24:00,89.4,25.8,29.91,West,270,5.8,8.1,10,0.00,,SKC,0.00,VWS V14.00,2013-08-29 00:24:00,
2013-08-28 17:25:00,89.4,25.8,29.91,West,270,5.8,8.1,10,0.00,,SKC,0.00,VWS V14.00,2013-08-29 00:25:00,
2013-08-28 17:26:00,89.8,26.0,29.91,NW,315,5.8,5.8,10,0.00,,SKC,0.00,VWS V14.00,2013-08-29 00:26:00,
2013-08-28 17:27:00,89.4,25.8,29.91,West,270,4.3,8.1,10,0.00,,SKC,0.00,VWS V14.00,2013-08-29 00:27:00,
2013-08-28 17:28:00,89.4,25.8,29.91,WNW,292,5.4,8.1,10,0.00,,SKC,0.00,VWS V14.00,2013-08-29 00:28:00,
2013-08-28 17:30:00,89.4,25.8,29.88,WNW,292,7.2,8.1,10,0.00,,SKC,0.00,VWS V14.00,2013-08-29 00:30:00,
2013-08-28 17:31:00,89.1,25.5,29.88,West,270,12.5,14.8,10,0.00,,SKC,0.00,VWS V14.00,2013-08-29 00:31:00,
2013-08-28 17:32:00,88.9,25.3,29.88,West,270,10.3,14.8,10,0.00,,SKC,0.00,VWS V14.00,2013-08-29 00:32:00,
2013-08-28 17:33:00,88.9,25.3,29.88,West,270,10.3,14.8,10,0.00,,SKC,0.00,VWS V14.00,2013-08-29 00:33:00,
2013-08-28 17:35:00,88.2,24.8,29.88,West,270,11.0,14.8,10,0.00,,SKC,0.00,VWS V14.00,2013-08-29 00:35:00,
2013-08-28 17:36:00,88.2,24.8,29.88,West,270,10.7,11.0,10,0.00,,SKC,0.00,VWS V14.00,2013-08-29 00:36:00,
2013-08-28 17:37:00,88.2,24.8,29.88,WNW,292,11.0,12.3,10,0.00,,SKC,0.00,VWS V14.00,2013-08-29 00:37:00,
2013-08-28 17:38:00,87.8,24.5,29.88,West,270,9.0,12.3,10,0.00,,SKC,0.00,VWS V14.00,2013-08-29 00:38:00,
2013-08-28 17:40:00,88.0,24.7,29.88,West,270,10.5,12.3,10,0.00,,SKC,0.00,VWS V14.00,2013-08-29 00:40:00,
2013-08-28 17:41:00,87.8,24.5,29.88,West,270,8.1,10.5,10,0.00,,SKC,0.00,VWS V14.00,2013-08-29 00:41:00,
2013-08-28 17:42:00,87.6,26.7,29.88,West,270,10.1,13.2,11,0.00,,SKC,0.00,VWS V14.00,2013-08-29 00:42:00,
2013-08-28 17:43:00,87.6,26.7,29.88,West,270,11.0,13.2,11,0.00,,SKC,0.00,VWS V14.00,2013-08-29 00:43:00,
2013-08-28 17:44:00,87.4,26.5,29.88,WNW,292,12.3,13.2,11,0.00,,SKC,0.00,VWS V14.00,2013-08-29 00:44:00,
2013-08-28 17:46:00,87.4,26.5,29.88,West,270,11.0,13.2,11,0.00,,SKC,0.00,VWS V14.00,2013-08-29 00:46:00,
2013-08-28 17:47:00,87.4,26.5,29.88,WNW,292,10.3,13.2,11,0.00,,SKC,0.00,VWS V14.00,2013-08-29 00:47:00,
2013-08-28 17:48:00,87.3,26.4,29.88,WNW,292,12.1,13.2,11,0.00,,SKC,0.00,VWS V14.00,2013-08-29 00:48:00,
2013-08-28 17:49:00,87.3,26.4,29.88,WNW,292,8.1,13.2,11,0.00,,SKC,0.00,VWS V14.00,2013-08-29 00:49:00,
2013-08-28 17:50:00,87.1,26.3,29.88,West,270,8.1,13.2,11,0.00,,SKC,0.00,VWS V14.00,2013-08-29 00:50:00,
2013-08-28 17:51:00,87.1,26.3,29.88,West,270,10.5,10.5,11,0.00,,SKC,0.00,VWS V14.00,2013-08-29 00:51:00,
2013-08-28 17:52:00,87.1,26.3,29.88,NW,315,9.4,10.5,11,0.00,,SKC,0.00,VWS V14.00,2013-08-29 00:52:00,
2013-08-28 17:53:00,87.1,26.3,29.88,WNW,292,7.6,10.5,11,0.00,,SKC,0.00,VWS V14.00,2013-08-29 00:53:00,
2013-08-28 17:54:00,87.1,26.3,29.88,SW,225,10.3,10.5,11,0.00,,SKC,0.00,VWS V14.00,2013-08-29 00:54:00,
2013-08-28 17:55:00,86.9,26.1,29.88,West,270,7.6,11.0,11,0.00,,SKC,0.00,VWS V14.00,2013-08-29 00:55:00,
2013-08-28 17:57:00,86.9,26.1,29.88,West,270,8.1,8.1,11,0.00,,SKC,0.00,VWS V14.00,2013-08-29 00:57:00,
2013-08-28 17:58:00,86.9,26.1,29.88,West,270,7.6,8.5,11,0.00,,SKC,0.00,VWS V14.00,2013-08-29 00:58:00,
2013-08-28 18:00:00,86.9,26.1,29.88,West,270,6.3,10.1,11,0.00,,SKC,0.00,VWS V14.00,2013-08-29 01:00:00,
2013-08-28 18:02:00,86.7,26.0,29.88,West,270,9.2,10.1,11,0.00,,SKC,0.00,VWS V14.00,2013-08-29 01:02:00,
2013-08-28 18:03:00,86.5,25.9,29.88,WNW,292,7.4,10.1,11,0.00,,SKC,0.00,VWS V14.00,2013-08-29 01:03:00,
2013-08-28 18:04:00,86.5,25.9,29.88,West,270,7.6,10.5,11,0.00,,SKC,0.00,VWS V14.00,2013-08-29 01:04:00,
2013-08-28 18:05:00,86.5,25.9,29.88,WSW,248,7.6,10.5,11,0.00,,SKC,0.00,VWS V14.00,2013-08-29 01:05:00,
2013-08-28 18:07:00,86.2,25.6,29.88,West,270,7.8,10.7,11,0.00,,SKC,0.00,VWS V14.00,2013-08-29 01:07:00,
2013-08-28 18:08:00,86.2,25.6,29.88,West,270,7.8,10.7,11,0.00,,SKC,0.00,VWS V14.00,2013-08-29 01:08:00,
2013-08-28 18:09:00,86.2,25.6,29.88,SW,225,9.8,12.1,11,0.00,,SKC,0.00,VWS V14.00,2013-08-29 01:09:00,
2013-08-28 18:10:00,85.8,25.3,29.88,West,270,10.1,12.1,11,0.00,,SKC,0.00,VWS V14.00,2013-08-29 01:10:00,
2013-08-28 18:11:00,85.6,25.2,29.88,West,270,7.8,10.5,11,0.00,,SKC,0.00,VWS V14.00,2013-08-29 01:11:00,
2013-08-28 18:12:00,85.6,25.2,29.88,WSW,248,10.3,10.5,11,0.00,,SKC,0.00,VWS V14.00,2013-08-29 01:12:00,
2013-08-28 18:13:00,85.6,25.2,29.88,West,270,8.1,10.5,11,0.00,,SKC,0.00,VWS V14.00,2013-08-29 01:13:00,
2013-08-28 18:14:00,85.5,25.0,29.88,West,270,6.0,13.0,11,0.00,,SKC,0.00,VWS V14.00,2013-08-29 01:14:00,
2013-08-28 18:15:00,85.5,25.0,29.88,WNW,292,10.5,13.0,11,0.00,,SKC,0.00,VWS V14.00,2013-08-29 01:15:00,
2013-08-28 18:16:00,85.5,25.0,29.88,WSW,248,7.4,10.5,11,0.00,,SKC,0.00,VWS V14.00,2013-08-29 01:16:00,
2013-08-28 18:17:00,85.5,25.0,29.88,West,270,11.0,11.0,11,0.00,,SKC,0.00,VWS V14.00,2013-08-29 01:17:00,
2013-08-28 18:18:00,85.5,25.0,29.88,WNW,292,8.5,11.0,11,0.00,,SKC,0.00,VWS V14.00,2013-08-29 01:18:00,
2013-08-28 18:20:00,85.3,24.9,29.88,West,270,7.8,11.0,11,0.00,,SKC,0.00,VWS V14.00,2013-08-29 01:20:00,
2013-08-28 18:21:00,85.3,24.9,29.88,West,270,7.8,11.0,11,0.00,,SKC,0.00,VWS V14.00,2013-08-29 01:21:00,
2013-08-28 18:22:00,85.3,24.9,29.88,West,270,4.3,7.8,11,0.00,,SKC,0.00,VWS V14.00,2013-08-29 01:22:00,
2013-08-28 18:23:00,85.3,24.9,29.88,WSW,248,5.8,7.8,11,0.00,,SKC,0.00,VWS V14.00,2013-08-29 01:23:00,
2013-08-28 18:24:00,85.3,24.9,29.88,WNW,292,10.5,10.5,11,0.00,,SKC,0.00,VWS V14.00,2013-08-29 01:24:00,
2013-08-28 18:25:00,85.3,24.9,29.88,West,270,10.3,10.5,11,0.00,,SKC,0.00,VWS V14.00,2013-08-29 01:25:00,
2013-08-28 18:26:00,85.3,24.9,29.88,WNW,292,7.4,7.4,11,0.00,,SKC,0.00,VWS V14.00,2013-08-29 01:26:00,
2013-08-28 18:27:00,85.3,24.9,29.88,West,270,6.3,7.4,11,0.00,,SKC,0.00,VWS V14.00,2013-08-29 01:27:00,
2013-08-28 18:28:00,84.9,24.6,29.88,West,270,8.1,8.1,11,0.00,,SKC,0.00,VWS V14.00,2013-08-29 01:28:00,
2013-08-28 18:29:00,84.9,24.6,29.88,West,270,5.6,8.1,11,0.00,,SKC,0.00,VWS V14.00,2013-08-29 01:29:00,
2013-08-28 18:30:00,84.9,24.6,29.88,West,270,6.0,8.1,11,0.00,,SKC,0.00,VWS V14.00,2013-08-29 01:30:00,
2013-08-28 18:31:00,84.9,24.6,29.88,West,270,6.0,8.1,11,0.00,,SKC,0.00,VWS V14.00,2013-08-29 01:31:00,
2013-08-28 18:32:00,84.7,24.5,29.88,West,270,8.1,8.7,11,0.00,,SKC,0.00,VWS V14.00,2013-08-29 01:32:00,
2013-08-28 18:33:00,84.6,24.3,29.88,WNW,292,9.6,10.7,11,0.00,,SKC,0.00,VWS V14.00,2013-08-29 01:33:00,
2013-08-28 18:34:00,84.6,24.3,29.88,West,270,5.8,10.7,11,0.00,,SKC,0.00,VWS V14.00,2013-08-29 01:34:00,
2013-08-28 18:35:00,84.6,24.3,29.88,WNW,292,9.8,10.7,11,0.00,,SKC,0.00,VWS V14.00,2013-08-29 01:35:00,
2013-08-28 18:36:00,84.4,24.2,29.88,WNW,292,10.7,10.7,11,0.00,,SKC,0.00,VWS V14.00,2013-08-29 01:36:00,
2013-08-28 18:37:00,84.4,24.2,29.88,WNW,292,7.8,10.7,11,0.00,,SKC,0.00,VWS V14.00,2013-08-29 01:37:00,
2013-08-28 18:38:00,84.4,24.2,29.88,WNW,292,7.4,10.7,11,0.00,,SKC,0.00,VWS V14.00,2013-08-29 01:38:00,
2013-08-28 18:39:00,84.4,24.2,29.88,WNW,292,7.4,10.7,11,0.00,,SKC,0.00,VWS V14.00,2013-08-29 01:39:00,
2013-08-28 18:40:00,84.4,24.2,29.88,West,270,7.4,10.7,11,0.00,,SKC,0.00,VWS V14.00,2013-08-29 01:40:00,
2013-08-28 18:42:00,84.4,24.2,29.88,WNW,292,7.2,7.4,11,0.00,,SKC,0.00,VWS V14.00,2013-08-29 01:42:00,
2013-08-28 18:43:00,84.4,24.2,29.88,NW,315,5.4,7.6,11,0.00,,SKC,0.00,VWS V14.00,2013-08-29 01:43:00,
2013-08-28 18:44:00,84.4,24.2,29.88,NW,315,5.4,7.6,11,0.00,,SKC,0.00,VWS V14.00,2013-08-29 01:44:00,
2013-08-28 18:45:00,83.8,23.8,29.88,West,270,10.3,10.3,11,0.00,,SKC,0.00,VWS V14.00,2013-08-29 01:45:00,
2013-08-28 18:47:00,83.8,23.8,29.88,WNW,292,5.8,8.7,11,0.00,,SKC,0.00,VWS V14.00,2013-08-29 01:47:00,
2013-08-28 18:48:00,83.7,23.6,29.88,West,270,7.6,8.7,11,0.00,,SKC,0.00,VWS V14.00,2013-08-29 01:48:00,
2013-08-28 18:49:00,83.7,23.6,29.88,West,270,7.6,8.7,11,0.00,,SKC,0.00,VWS V14.00,2013-08-29 01:49:00,
2013-08-28 18:50:00,83.5,23.5,29.88,NW,315,11.9,11.9,11,0.00,,SKC,0.00,VWS V14.00,2013-08-29 01:50:00,
2013-08-28 18:53:00,83.3,23.4,29.88,WNW,292,8.7,8.7,11,0.00,,SKC,0.00,VWS V14.00,2013-08-29 01:53:00,
2013-08-28 18:54:00,83.3,23.4,29.88,WNW,292,8.7,8.7,11,0.00,,SKC,0.00,VWS V14.00,2013-08-29 01:54:00,
2013-08-28 18:55:00,82.9,23.1,29.88,NW,315,11.0,11.0,11,0.00,,SKC,0.00,VWS V14.00,2013-08-29 01:55:00,
2013-08-28 18:58:00,82.8,23.0,29.88,WNW,292,12.5,13.9,11,0.00,,SKC,0.00,VWS V14.00,2013-08-29 01:58:00,
2013-08-28 18:59:00,82.6,22.8,29.88,WNW,292,10.1,13.9,11,0.00,,SKC,0.00,VWS V14.00,2013-08-29 01:59:00,
2013-08-28 19:00:00,82.6,22.8,29.88,WNW,292,10.3,13.9,11,0.00,,SKC,0.00,VWS V14.00,2013-08-29 02:00:00,
2013-08-28 19:03:00,82.2,24.6,29.88,WNW,292,7.4,14.1,12,0.00,,SKC,0.00,VWS V14.00,2013-08-29 02:03:00,
2013-08-28 19:04:00,82.2,24.6,29.88,WNW,292,10.3,14.1,12,0.00,,SKC,0.00,VWS V14.00,2013-08-29 02:04:00,
2013-08-28 19:05:00,82.2,24.6,29.88,WNW,292,10.3,14.1,12,0.00,,SKC,0.00,VWS V14.00,2013-08-29 02:05:00,
2013-08-28 19:08:00,81.9,24.3,29.88,WNW,292,11.9,13.2,12,0.00,,SKC,0.00,VWS V14.00,2013-08-29 02:08:00,
2013-08-28 19:09:00,81.9,24.3,29.88,West,270,8.7,13.2,12,0.00,,SKC,0.00,VWS V14.00,2013-08-29 02:09:00,
2013-08-28 19:10:00,81.9,24.3,29.88,WNW,292,10.1,13.2,12,0.00,,SKC,0.00,VWS V14.00,2013-08-29 02:10:00,
2013-08-28 19:11:00,81.9,24.3,29.88,WNW,292,13.2,13.2,12,0.00,,SKC,0.00,VWS V14.00,2013-08-29 02:11:00,
2013-08-28 19:13:00,81.5,24.0,29.88,WNW,292,8.7,14.5,12,0.00,,SKC,0.00,VWS V14.00,2013-08-29 02:13:00,
2013-08-28 19:14:00,81.5,24.0,29.88,WNW,292,8.7,14.5,12,0.00,,SKC,0.00,VWS V14.00,2013-08-29 02:14:00,
2013-08-28 19:15:00,81.5,24.0,29.88,WNW,292,8.7,14.5,12,0.00,,SKC,0.00,VWS V14.00,2013-08-29 02:15:00,
2013-08-28 19:16:00,81.5,24.0,29.88,WNW,292,8.7,14.5,12,0.00,,SKC,0.00,VWS V14.00,2013-08-29 02:16:00,
2013-08-28 19:18:00,81.1,23.8,29.88,WNW,292,8.5,12.8,12,0.00,,SKC,0.00,VWS V14.00,2013-08-29 02:18:00,
2013-08-28 19:19:00,81.1,23.8,29.88,West,270,8.7,12.8,12,0.00,,SKC,0.00,VWS V14.00,2013-08-29 02:19:00,
2013-08-28 19:20:00,81.1,23.8,29.88,WNW,292,8.7,12.8,12,0.00,,SKC,0.00,VWS V14.00,2013-08-29 02:20:00,
2013-08-28 19:21:00,81.0,23.6,29.88,WNW,292,10.1,10.1,12,0.00,,SKC,0.00,VWS V14.00,2013-08-29 02:21:00,
2013-08-28 19:23:00,80.8,23.5,29.88,West,270,8.7,10.1,12,0.00,,SKC,0.00,VWS V14.00,2013-08-29 02:23:00,
2013-08-28 19:24:00,80.8,23.5,29.88,West,270,8.7,10.1,12,0.00,,SKC,0.00,VWS V14.00,2013-08-29 02:24:00,
2013-08-28 19:25:00,80.6,23.4,29.88,WNW,292,8.7,10.5,12,0.00,,SKC,0.00,VWS V14.00,2013-08-29 02:25:00,
2013-08-28 19:26:00,80.6,23.4,29.88,WNW,292,8.7,10.5,12,0.00,,SKC,0.00,VWS V14.00,2013-08-29 02:26:00,
2013-08-28 19:27:00,80.6,23.4,29.88,West,270,13.2,13.4,12,0.00,,SKC,0.00,VWS V14.00,2013-08-29 02:27:00,
2013-08-28 19:28:00,80.4,23.2,29.88,West,270,10.3,13.4,12,0.00,,SKC,0.00,VWS V14.00,2013-08-29 02:28:00,
2013-08-28 19:29:00,80.4,23.2,29.88,West,270,4.3,13.4,12,0.00,,SKC,0.00,VWS V14.00,2013-08-29 02:29:00,
2013-08-28 19:30:00,80.4,23.2,29.88,WNW,292,7.2,13.4,12,0.00,,SKC,0.00,VWS V14.00,2013-08-29 02:30:00,
2013-08-28 19:31:00,80.4,23.2,29.88,WNW,292,7.4,7.4,12,0.00,,SKC,0.00,VWS V14.00,2013-08-29 02:31:00,
2013-08-28 19:33:00,80.2,23.1,29.88,West,270,10.1,11.0,12,0.00,,SKC,0.00,VWS V14.00,2013-08-29 02:33:00,
2013-08-28 19:34:00,80.2,23.1,29.88,West,270,10.1,11.0,12,0.00,,SKC,0.00,VWS V14.00,2013-08-29 02:34:00,
2013-08-28 19:35:00,80.1,22.9,29.88,WNW,292,8.5,11.0,12,0.00,,SKC,0.00,VWS V14.00,2013-08-29 02:35:00,
2013-08-28 19:36:00,80.1,22.9,29.88,WNW,292,8.5,8.5,12,0.00,,SKC,0.00,VWS V14.00,2013-08-29 02:36:00,
2013-08-28 19:38:00,80.1,22.9,29.88,West,270,8.5,8.5,12,0.00,,SKC,0.00,VWS V14.00,2013-08-29 02:38:00,
2013-08-28 19:39:00,79.9,22.8,29.88,West,270,12.1,12.5,12,0.00,,SKC,0.00,VWS V14.00,2013-08-29 02:39:00,
2013-08-28 19:40:00,79.9,22.8,29.88,West,270,7.6,12.5,12,0.00,,SKC,0.00,VWS V14.00,2013-08-29 02:40:00,
2013-08-28 19:41:00,79.7,22.6,29.88,West,270,10.5,10.5,12,0.00,,SKC,0.00,VWS V14.00,2013-08-29 02:41:00,
2013-08-28 19:43:00,79.5,22.5,29.88,West,270,8.7,10.7,12,0.00,,SKC,0.00,VWS V14.00,2013-08-29 02:43:00,
2013-08-28 19:44:00,79.5,22.5,29.88,WNW,292,11.4,11.4,12,0.00,,SKC,0.00,VWS V14.00,2013-08-29 02:44:00,
2013-08-28 19:45:00,79.5,22.5,29.88,WNW,292,11.4,11.4,12,0.00,,SKC,0.00,VWS V14.00,2013-08-29 02:45:00,
2013-08-28 19:46:00,79.5,22.5,29.88,WNW,292,8.7,9.6,12,0.00,,SKC,0.00,VWS V14.00,2013-08-29 02:46:00,
2013-08-28 19:48:00,79.3,22.4,29.88,West,270,10.3,13.0,12,0.00,,SKC,0.00,VWS V14.00,2013-08-29 02:48:00,
2013-08-28 19:49:00,79.3,22.4,29.88,West,270,6.5,13.0,12,0.00,,SKC,0.00,VWS V14.00,2013-08-29 02:49:00,
2013-08-28 19:50:00,79.3,22.4,29.88,WNW,292,12.5,13.0,12,0.00,,SKC,0.00,VWS V14.00,2013-08-29 02:50:00,
2013-08-28 19:51:00,79.3,22.4,29.88,West,270,10.5,12.5,12,0.00,,SKC,0.00,VWS V14.00,2013-08-29 02:51:00,
2013-08-28 19:53:00,79.2,22.2,29.88,West,270,8.1,12.5,12,0.00,,SKC,0.00,VWS V14.00,2013-08-29 02:53:00,
2013-08-28 19:54:00,79.2,22.2,29.88,West,270,6.0,12.5,12,0.00,,SKC,0.00,VWS V14.00,2013-08-29 02:54:00,
2013-08-28 19:55:00,79.2,22.2,29.88,WNW,292,5.8,12.5,12,0.00,,SKC,0.00,VWS V14.00,2013-08-29 02:55:00,
2013-08-28 19:56:00,79.2,22.2,29.88,WNW,292,4.0,5.8,12,0.00,,SKC,0.00,VWS V14.00,2013-08-29 02:56:00,
2013-08-28 19:59:00,79.0,22.1,29.88,WNW,292,9.8,9.8,12,0.00,,SKC,0.00,VWS V14.00,2013-08-29 02:59:00,
2013-08-28 20:00:00,78.8,22.0,29.88,West,270,8.5,9.8,12,0.00,,SKC,0.00,VWS V14.00,2013-08-29 03:00:00,
2013-08-28 20:01:00,78.8,22.0,29.88,NW,315,10.7,10.7,12,0.00,,SKC,0.00,VWS V14.00,2013-08-29 03:01:00,
2013-08-28 20:02:00,78.8,22.0,29.88,West,270,10.1,10.7,12,0.00,,SKC,0.00,VWS V14.00,2013-08-29 03:02:00,
2013-08-28 20:04:00,78.8,22.0,29.88,WNW,292,5.4,10.7,12,0.00,,SKC,0.00,VWS V14.00,2013-08-29 03:04:00,
2013-08-28 20:05:00,78.6,23.7,29.88,West,270,5.8,10.7,13,0.00,,SKC,0.00,VWS V14.00,2013-08-29 03:05:00,
2013-08-28 20:06:00,78.6,23.7,29.88,WNW,292,7.4,8.7,13,0.00,,SKC,0.00,VWS V14.00,2013-08-29 03:06:00,
2013-08-28 20:07:00,78.6,23.7,29.88,West,270,7.6,8.7,13,0.00,,SKC,0.00,VWS V14.00,2013-08-29 03:07:00,
2013-08-28 20:09:00,78.6,23.7,29.88,West,270,7.8,10.1,13,0.00,,SKC,0.00,VWS V14.00,2013-08-29 03:09:00,
2013-08-28 20:10:00,78.4,23.6,29.88,WNW,292,3.8,10.1,13,0.00,,SKC,0.00,VWS V14.00,2013-08-29 03:10:00,
2013-08-28 20:11:00,78.4,23.6,29.88,West,270,8.1,8.1,13,0.00,,SKC,0.00,VWS V14.00,2013-08-29 03:11:00,
2013-08-28 20:12:00,78.4,23.6,29.88,NW,315,8.7,8.7,13,0.00,,SKC,0.00,VWS V14.00,2013-08-29 03:12:00,
2013-08-28 20:14:00,78.3,23.4,29.88,West,270,4.7,8.7,13,0.00,,SKC,0.00,VWS V14.00,2013-08-29 03:14:00,
2013-08-28 20:15:00,78.3,23.4,29.88,WNW,292,5.4,8.7,13,0.00,,SKC,0.00,VWS V14.00,2013-08-29 03:15:00,
2013-08-28 20:16:00,78.3,23.4,29.88,WNW,292,6.3,6.3,13,0.00,,SKC,0.00,VWS V14.00,2013-08-29 03:16:00,
2013-08-28 20:17:00,78.3,23.4,29.88,WNW,292,4.3,6.3,13,0.00,,SKC,0.00,VWS V14.00,2013-08-29 03:17:00,
2013-08-28 20:19:00,78.1,23.3,29.88,WNW,292,6.5,6.5,13,0.00,,SKC,0.00,VWS V14.00,2013-08-29 03:19:00,
2013-08-28 20:20:00,78.1,23.3,29.88,WNW,292,5.4,6.5,13,0.00,,SKC,0.00,VWS V14.00,2013-08-29 03:20:00,
2013-08-28 20:21:00,78.1,23.3,29.88,NW,315,5.6,6.5,13,0.00,,SKC,0.00,VWS V14.00,2013-08-29 03:21:00,
2013-08-28 20:22:00,78.1,23.3,29.88,NW,315,5.6,6.5,13,0.00,,SKC,0.00,VWS V14.00,2013-08-29 03:22:00,
2013-08-28 20:24:00,77.7,23.0,29.88,North,0,3.8,6.5,13,0.00,,SKC,0.00,VWS V14.00,2013-08-29 03:24:00,
2013-08-28 20:25:00,77.7,23.0,29.88,NW,315,2.7,6.5,13,0.00,,SKC,0.00,VWS V14.00,2013-08-29 03:25:00,
2013-08-28 20:27:00,77.4,22.7,29.88,NNW,338,1.6,6.5,13,0.00,,SKC,0.00,VWS V14.00,2013-08-29 03:27:00,
2013-08-28 20:29:00,77.2,22.6,29.88,NW,315,1.6,6.5,13,0.00,,SKC,0.00,VWS V14.00,2013-08-29 03:29:00,
2013-08-28 20:30:00,77.0,22.4,29.88,North,0,3.6,6.5,13,0.00,,SKC,0.00,VWS V14.00,2013-08-29 03:30:00,
2013-08-28 20:31:00,77.0,22.4,29.88,North,0,2.5,6.5,13,0.00,,SKC,0.00,VWS V14.00,2013-08-29 03:31:00,
2013-08-28 20:32:00,77.0,22.4,29.88,North,0,2.0,6.5,13,0.00,,SKC,0.00,VWS V14.00,2013-08-29 03:32:00,
2013-08-28 20:33:00,76.8,22.3,29.88,North,0,3.1,6.5,13,0.00,,SKC,0.00,VWS V14.00,2013-08-29 03:33:00,
2013-08-28 20:34:00,76.8,22.3,29.88,NNE,22,3.1,6.5,13,0.00,,SKC,0.00,VWS V14.00,2013-08-29 03:34:00,
2013-08-28 20:35:00,76.8,22.3,29.88,NNE,22,2.2,6.5,13,0.00,,SKC,0.00,VWS V14.00,2013-08-29 03:35:00,
2013-08-28 20:36:00,76.8,22.3,29.88,NNE,22,2.2,6.5,13,0.00,,SKC,0.00,VWS V14.00,2013-08-29 03:36:00,
2013-08-28 20:37:00,76.6,22.1,29.88,NNE,22,3.1,3.1,13,0.00,,SKC,0.00,VWS V14.00,2013-08-29 03:37:00,
2013-08-28 20:38:00,76.6,22.1,29.88,North,0,2.5,3.1,13,0.00,,SKC,0.00,VWS V14.00,2013-08-29 03:38:00,
2013-08-28 20:39:00,76.5,22.0,29.88,North,0,1.1,3.1,13,0.00,,SKC,0.00,VWS V14.00,2013-08-29 03:39:00,
2013-08-28 20:40:00,76.5,22.0,29.88,North,0,2.2,3.1,13,0.00,,SKC,0.00,VWS V14.00,2013-08-29 03:40:00,
2013-08-28 20:41:00,76.5,22.0,29.88,North,0,2.7,2.7,13,0.00,,SKC,0.00,VWS V14.00,2013-08-29 03:41:00,
2013-08-28 20:42:00,76.5,22.0,29.88,North,0,2.7,2.7,13,0.00,,SKC,0.00,VWS V14.00,2013-08-29 03:42:00,
2013-08-28 20:44:00,75.9,21.6,29.91,North,0,0.0,2.7,13,0.00,,SKC,0.00,VWS V14.00,2013-08-29 03:44:00,
2013-08-28 20:45:00,75.9,21.6,29.91,North,0,0.0,2.7,13,0.00,,SKC,0.00,VWS V14.00,2013-08-29 03:45:00,
2013-08-28 20:47:00,75.6,21.3,29.91,NE,45,0.0,0.0,13,0.00,,SKC,0.00,VWS V14.00,2013-08-29 03:47:00,
2013-08-28 20:49:00,75.6,21.3,29.91,NE,45,0.0,0.0,13,0.00,,SKC,0.00,VWS V14.00,2013-08-29 03:49:00,
2013-08-28 20:50:00,75.6,21.3,29.91,NE,45,0.0,0.0,13,0.00,,SKC,0.00,VWS V14.00,2013-08-29 03:50:00,
2013-08-28 20:52:00,75.2,21.0,29.91,NE,45,2.7,2.9,13,0.00,,SKC,0.00,VWS V14.00,2013-08-29 03:52:00,
2013-08-28 20:53:00,75.2,21.0,29.91,NE,45,3.4,3.4,13,0.00,,SKC,0.00,VWS V14.00,2013-08-29 03:53:00,
2013-08-28 20:54:00,75.0,20.9,29.91,NE,45,4.3,4.3,13,0.00,,SKC,0.00,VWS V14.00,2013-08-29 03:54:00,
2013-08-28 20:55:00,75.0,20.9,29.91,NNE,22,4.7,4.7,13,0.00,,SKC,0.00,VWS V14.00,2013-08-29 03:55:00,
2013-08-28 20:57:00,75.0,20.9,29.91,NE,45,1.3,3.6,13,0.00,,SKC,0.00,VWS V14.00,2013-08-29 03:57:00,
2013-08-28 20:58:00,75.0,20.9,29.91,NE,45,3.4,3.6,13,0.00,,SKC,0.00,VWS V14.00,2013-08-29 03:58:00,
2013-08-28 20:59:00,75.0,20.9,29.91,NNE,22,1.6,3.8,13,0.00,,SKC,0.00,VWS V14.00,2013-08-29 03:59:00,
2013-08-28 21:00:00,75.0,20.9,29.91,NNE,22,1.6,3.8,13,0.00,,SKC,0.00,VWS V14.00,2013-08-29 04:00:00,
2013-08-28 21:01:00,75.0,20.9,29.91,NNE,22,1.6,3.8,13,0.00,,SKC,0.00,VWS V14.00,2013-08-29 04:01:00,
2013-08-28 21:02:00,75.0,20.9,29.91,NNE,22,2.9,2.9,13,0.00,,SKC,0.00,VWS V14.00,2013-08-29 04:02:00,
2013-08-28 21:05:00,74.8,20.7,29.91,NNE,22,2.5,2.9,13,0.00,,SKC,0.00,VWS V14.00,2013-08-29 04:05:00,
2013-08-28 21:06:00,74.8,20.7,29.91,NNE,22,2.5,2.9,13,0.00,,SKC,0.00,VWS V14.00,2013-08-29 04:06:00,
2013-08-28 21:07:00,74.8,20.7,29.91,NNW,338,2.5,2.5,13,0.00,,SKC,0.00,VWS V14.00,2013-08-29 04:07:00,
2013-08-28 21:10:00,74.8,20.7,29.91,South,180,0.9,2.5,13,0.00,,SKC,0.00,VWS V14.00,2013-08-29 04:10:00,
2013-08-28 21:11:00,74.8,20.7,29.91,South,180,0.9,2.5,13,0.00,,SKC,0.00,VWS V14.00,2013-08-29 04:11:00,
2013-08-28 21:12:00,74.8,20.7,29.91,NW,315,3.1,3.1,13,0.00,,SKC,0.00,VWS V14.00,2013-08-29 04:12:00,
2013-08-28 21:16:00,74.5,20.5,29.91,WNW,292,2.0,3.1,13,0.00,,SKC,0.00,VWS V14.00,2013-08-29 04:16:00,
2013-08-28 21:17:00,74.5,20.5,29.91,West,270,4.0,4.0,13,0.00,,SKC,0.00,VWS V14.00,2013-08-29 04:17:00,
2013-08-28 21:20:00,74.7,20.6,29.91,West,270,2.9,4.7,13,0.00,,SKC,0.00,VWS V14.00,2013-08-29 04:20:00,
2013-08-28 21:21:00,74.7,20.6,29.91,West,270,2.9,4.7,13,0.00,,SKC,0.00,VWS V14.00,2013-08-29 04:21:00,
2013-08-28 21:22:00,74.8,20.7,29.91,WNW,292,3.4,3.4,13,0.00,,SKC,0.00,VWS V14.00,2013-08-29 04:22:00,
2013-08-28 21:25:00,74.8,20.7,29.91,WNW,292,2.7,3.4,13,0.00,,SKC,0.00,VWS V14.00,2013-08-29 04:25:00,
2013-08-28 21:26:00,74.7,20.6,29.91,West,270,3.1,3.1,13,0.00,,SKC,0.00,VWS V14.00,2013-08-29 04:26:00,
2013-08-28 21:27:00,74.7,20.6,29.91,West,270,4.3,4.3,13,0.00,,SKC,0.00,VWS V14.00,2013-08-29 04:27:00,
2013-08-28 21:30:00,74.5,20.5,29.91,West,270,2.5,5.4,13,0.00,,SKC,0.00,VWS V14.00,2013-08-29 04:30:00,
2013-08-28 21:31:00,74.5,20.5,29.91,West,270,2.0,2.5,13,0.00,,SKC,0.00,VWS V14.00,2013-08-29 04:31:00,
2013-08-28 21:32:00,74.5,20.5,29.91,WNW,292,4.7,4.7,13,0.00,,SKC,0.00,VWS V14.00,2013-08-29 04:32:00,
2013-08-28 21:35:00,74.7,20.6,29.91,WNW,292,4.0,4.7,13,0.00,,SKC,0.00,VWS V14.00,2013-08-29 04:35:00,
2013-08-28 21:36:00,74.5,20.5,29.91,West,270,2.9,4.0,13,0.00,,SKC,0.00,VWS V14.00,2013-08-29 04:36:00,
2013-08-28 21:37:00,74.5,20.5,29.91,WNW,292,2.9,4.7,13,0.00,,SKC,0.00,VWS V14.00,2013-08-29 04:37:00,
2013-08-28 21:38:00,74.5,20.5,29.91,NW,315,5.4,5.4,13,0.00,,SKC,0.00,VWS V14.00,2013-08-29 04:38:00,
2013-08-28 21:40:00,74.7,20.6,29.91,WNW,292,6.5,8.5,13,0.00,,SKC,0.00,VWS V14.00,2013-08-29 04:40:00,
2013-08-28 21:41:00,75.0,20.9,29.91,WNW,292,6.3,6.5,13,0.00,,SKC,0.00,VWS V14.00,2013-08-29 04:41:00,
2013-08-28 21:42:00,75.0,20.9,29.91,WNW,292,6.3,7.6,13,0.00,,SKC,0.00,VWS V14.00,2013-08-29 04:42:00,
2013-08-28 21:43:00,75.0,20.9,29.91,WNW,292,6.3,7.6,13,0.00,,SKC,0.00,VWS V14.00,2013-08-29 04:43:00,
2013-08-28 21:44:00,75.0,20.9,29.91,NW,315,7.8,7.8,13,0.00,,SKC,0.00,VWS V14.00,2013-08-29 04:44:00,
2013-08-28 21:45:00,75.0,20.9,29.91,WNW,292,6.5,7.8,13,0.00,,SKC,0.00,VWS V14.00,2013-08-29 04:45:00,
2013-08-28 21:46:00,75.0,20.9,29.91,WNW,292,7.8,7.8,13,0.00,,SKC,0.00,VWS V14.00,2013-08-29 04:46:00,
2013-08-28 21:47:00,75.0,20.9,29.91,WNW,292,5.4,7.8,13,0.00,,SKC,0.00,VWS V14.00,2013-08-29 04:47:00,
2013-08-28 21:48:00,75.0,20.9,29.91,WNW,292,3.8,7.8,13,0.00,,SKC,0.00,VWS V14.00,2013-08-29 04:48:00,
2013-08-28 21:50:00,75.0,20.9,29.91,WNW,292,5.8,8.1,13,0.00,,SKC,0.00,VWS V14.00,2013-08-29 04:50:00,
2013-08-28 21:51:00,75.0,20.9,29.91,WNW,292,5.6,8.1,13,0.00,,SKC,0.00,VWS V14.00,2013-08-29 04:51:00,
2013-08-28 21:52:00,75.0,20.9,29.91,WNW,292,4.3,8.1,13,0.00,,SKC,0.00,VWS V14.00,2013-08-29 04:52:00,
2013-08-28 21:53:00,75.0,20.9,29.91,WNW,292,5.6,8.1,13,0.00,,SKC,0.00,VWS V14.00,2013-08-29 04:53:00,
2013-08-28 21:54:00,75.0,20.9,29.91,WNW,292,6.0,8.1,13,0.00,,SKC,0.00,VWS V14.00,2013-08-29 04:54:00,
2013-08-28 21:55:00,75.0,20.9,29.91,WNW,292,6.0,8.1,13,0.00,,SKC,0.00,VWS V14.00,2013-08-29 04:55:00,
2013-08-28 21:56:00,75.0,20.9,29.91,West,270,6.3,7.4,13,0.00,,SKC,0.00,VWS V14.00,2013-08-29 04:56:00,
2013-08-28 21:57:00,75.0,20.9,29.91,WNW,292,5.4,7.4,13,0.00,,SKC,0.00,VWS V14.00,2013-08-29 04:57:00,
2013-08-28 21:58:00,75.0,20.9,29.94,NW,315,6.0,8.7,13,0.00,,SKC,0.00,VWS V14.00,2013-08-29 04:58:00,
2013-08-28 21:59:00,75.0,20.9,29.94,West,270,6.3,8.7,13,0.00,,SKC,0.00,VWS V14.00,2013-08-29 04:59:00,
2013-08-28 22:00:00,75.0,20.9,29.94,WNW,292,5.6,8.7,13,0.00,,SKC,0.00,VWS V14.00,2013-08-29 05:00:00,
2013-08-28 22:01:00,75.0,20.9,29.94,WNW,292,5.6,5.6,13,0.00,,SKC,0.00,VWS V14.00,2013-08-29 05:01:00,
2013-08-28 22:02:00,74.8,20.7,29.94,WNW,292,4.9,8.1,13,0.00,,SKC,0.00,VWS V14.00,2013-08-29 05:02:00,
2013-08-28 22:04:00,74.8,20.7,29.94,West,270,7.8,8.1,13,0.00,,SKC,0.00,VWS V14.00,2013-08-29 05:04:00,
2013-08-28 22:05:00,75.0,20.9,29.94,WNW,292,5.6,8.5,13,0.00,,SKC,0.00,VWS V14.00,2013-08-29 05:05:00,
2013-08-28 22:06:00,75.0,20.9,29.94,WNW,292,6.0,6.0,13,0.00,,SKC,0.00,VWS V14.00,2013-08-29 05:06:00,
2013-08-28 22:07:00,75.0,20.9,29.94,WNW,292,5.8,6.0,13,0.00,,SKC,0.00,VWS V14.00,2013-08-29 05:07:00,
2013-08-28 22:09:00,74.8,20.7,29.94,West,270,5.4,7.2,13,0.00,,SKC,0.00,VWS V14.00,2013-08-29 05:09:00,
2013-08-28 22:11:00,74.8,20.7,29.94,WNW,292,5.8,7.2,13,0.00,,SKC,0.00,VWS V14.00,2013-08-29 05:11:00,
2013-08-28 22:13:00,74.8,20.7,29.94,WNW,292,5.8,7.2,13,0.00,,SKC,0.00,VWS V14.00,2013-08-29 05:13:00,
2013-08-28 22:15:00,75.0,20.9,29.94,West,270,5.6,10.7,13,0.00,,SKC,0.00,VWS V14.00,2013-08-29 05:15:00,
2013-08-28 22:16:00,75.0,20.9,29.94,WNW,292,7.6,7.6,13,0.00,,SKC,0.00,VWS V14.00,2013-08-29 05:16:00,
2013-08-28 22:18:00,75.0,20.9,29.94,West,270,4.9,9.8,13,0.00,,SKC,0.00,VWS V14.00,2013-08-29 05:18:00,
2013-08-28 22:20:00,75.0,20.9,29.94,West,270,4.9,9.8,13,0.00,,SKC,0.00,VWS V14.00,2013-08-29 05:20:00,
2013-08-28 22:21:00,75.0,20.9,29.94,WNW,292,6.5,8.5,13,0.00,,SKC,0.00,VWS V14.00,2013-08-29 05:21:00,
2013-08-28 22:22:00,75.0,20.9,29.94,WNW,292,7.6,8.5,13,0.00,,SKC,0.00,VWS V14.00,2013-08-29 05:22:00,
2013-08-28 22:23:00,75.0,20.9,29.94,WNW,292,7.6,8.5,13,0.00,,SKC,0.00,VWS V14.00,2013-08-29 05:23:00,
2013-08-28 22:25:00,75.0,20.9,29.94,WNW,292,5.8,8.5,13,0.00,,SKC,0.00,VWS V14.00,2013-08-29 05:25:00,
2013-08-28 22:26:00,74.8,20.7,29.94,WNW,292,3.8,8.5,13,0.00,,SKC,0.00,VWS V14.00,2013-08-29 05:26:00,
2013-08-28 22:28:00,74.8,20.7,29.94,WNW,292,5.8,8.1,13,0.00,,SKC,0.00,VWS V14.00,2013-08-29 05:28:00,
2013-08-28 22:30:00,74.8,20.7,29.94,NW,315,6.3,8.1,13,0.00,,SKC,0.00,VWS V14.00,2013-08-29 05:30:00,
2013-08-28 22:31:00,74.8,20.7,29.94,NW,315,6.3,8.1,13,0.00,,SKC,0.00,VWS V14.00,2013-08-29 05:31:00,
2013-08-28 22:32:00,74.8,20.7,29.94,WNW,292,5.6,7.2,13,0.00,,SKC,0.00,VWS V14.00,2013-08-29 05:32:00,
2013-08-28 22:33:00,74.7,20.6,29.94,NW,315,6.0,7.2,13,0.00,,SKC,0.00,VWS V14.00,2013-08-29 05:33:00,
2013-08-28 22:35:00,74.7,20.6,29.94,WNW,292,3.6,7.2,13,0.00,,SKC,0.00,VWS V14.00,2013-08-29 05:35:00,
2013-08-28 22:36:00,74.5,20.5,29.94,West,270,4.9,4.9,13,0.00,,SKC,0.00,VWS V14.00,2013-08-29 05:36:00,
2013-08-28 22:37:00,74.5,20.5,29.94,WNW,292,5.8,5.8,13,0.00,,SKC,0.00,VWS V14.00,2013-08-29 05:37:00,
2013-08-28 22:38:00,74.5,20.5,29.94,West,270,5.8,5.8,13,0.00,,SKC,0.00,VWS V14.00,2013-08-29 05:38:00,
2013-08-28 22:40:00,74.3,20.3,29.94,WNW,292,3.1,6.0,13,0.00,,SKC,0.00,VWS V14.00,2013-08-29 05:40:00,
2013-08-28 22:41:00,74.3,20.3,29.94,WNW,292,3.1,6.0,13,0.00,,SKC,0.00,VWS V14.00,2013-08-29 05:41:00,
2013-08-28 22:42:00,74.3,20.3,29.94,West,270,1.6,6.0,13,0.00,,SKC,0.00,VWS V14.00,2013-08-29 05:42:00,
2013-08-28 22:43:00,73.9,20.0,29.94,WNW,292,2.2,6.0,13,0.00,,SKC,0.00,VWS V14.00,2013-08-29 05:43:00,
2013-08-28 22:45:00,73.8,19.9,29.94,WNW,292,2.5,6.0,13,0.00,,SKC,0.00,VWS V14.00,2013-08-29 05:45:00,
2013-08-28 22:47:00,73.6,19.8,29.94,West,270,2.5,4.0,13,0.00,,SKC,0.00,VWS V14.00,2013-08-29 05:47:00,
2013-08-28 22:48:00,73.6,19.8,29.94,West,270,4.3,4.3,13,0.00,,SKC,0.00,VWS V14.00,2013-08-29 05:48:00,
2013-08-28 22:50:00,73.6,19.8,29.94,WNW,292,3.8,4.3,13,0.00,,SKC,0.00,VWS V14.00,2013-08-29 05:50:00,
2013-08-28 22:52:00,73.4,19.6,29.94,NW,315,0.0,2.7,13,0.00,,SKC,0.00,VWS V14.00,2013-08-29 05:52:00,
2013-08-28 22:53:00,73.4,19.6,29.94,West,270,2.5,2.7,13,0.00,,SKC,0.00,VWS V14.00,2013-08-29 05:53:00,
2013-08-28 22:54:00,73.4,19.6,29.94,West,270,2.9,2.9,13,0.00,,SKC,0.00,VWS V14.00,2013-08-29 05:54:00,
2013-08-28 22:55:00,73.2,21.2,29.94,WSW,248,2.5,2.9,14,0.00,,SKC,0.00,VWS V14.00,2013-08-29 05:55:00,
2013-08-28 22:56:00,73.2,21.2,29.94,WSW,248,2.5,2.5,14,0.00,,SKC,0.00,VWS V14.00,2013-08-29 05:56:00,
2013-08-28 22:57:00,73.2,21.2,29.94,WSW,248,2.7,3.4,14,0.00,,SKC,0.00,VWS V14.00,2013-08-29 05:57:00,
2013-08-28 22:58:00,73.2,21.2,29.94,WSW,248,0.0,3.4,14,0.00,,SKC,0.00,VWS V14.00,2013-08-29 05:58:00,
2013-08-28 22:59:00,72.9,20.9,29.94,WSW,248,0.0,3.4,14,0.00,,SKC,0.00,VWS V14.00,2013-08-29 05:59:00,
2013-08-28 23:00:00,72.5,20.6,29.94,WSW,248,0.0,3.4,14,0.00,,SKC,0.00,VWS V14.00,2013-08-29 06:00:00,
2013-08-28 23:01:00,72.5,20.6,29.94,WSW,248,0.0,3.4,14,0.00,,SKC,0.00,VWS V14.00,2013-08-29 06:01:00,
2013-08-28 23:02:00,72.5,20.6,29.94,WSW,248,0.0,0.0,14,0.00,,SKC,0.00,VWS V14.00,2013-08-29 06:02:00,
2013-08-28 23:03:00,72.0,20.2,29.94,NE,45,0.0,0.0,14,0.00,,SKC,0.00,VWS V14.00,2013-08-29 06:03:00,
2013-08-28 23:05:00,72.0,20.2,29.94,NE,45,0.0,0.0,14,0.00,,SKC,0.00,VWS V14.00,2013-08-29 06:05:00,
2013-08-28 23:06:00,72.0,20.2,29.94,East,90,0.0,0.0,14,0.00,,SKC,0.00,VWS V14.00,2013-08-29 06:06:00,
2013-08-28 23:07:00,72.0,20.2,29.94,East,90,0.0,0.0,14,0.00,,SKC,0.00,VWS V14.00,2013-08-29 06:07:00,
2013-08-28 23:08:00,72.0,20.2,29.94,East,90,0.0,0.0,14,0.00,,SKC,0.00,VWS V14.00,2013-08-29 06:08:00,
2013-08-28 23:10:00,72.0,20.2,29.94,NNE,22,0.0,0.0,14,0.00,,SKC,0.00,VWS V14.00,2013-08-29 06:10:00,
2013-08-28 23:11:00,72.0,20.2,29.94,NNW,338,0.0,0.0,14,0.00,,SKC,0.00,VWS V14.00,2013-08-29 06:11:00,
2013-08-28 23:12:00,72.0,20.2,29.94,NNE,22,3.8,3.8,14,0.00,,SKC,0.00,VWS V14.00,2013-08-29 06:12:00,
2013-08-28 23:13:00,72.3,20.5,29.94,North,0,4.3,4.3,14,0.00,,SKC,0.00,VWS V14.00,2013-08-29 06:13:00,
2013-08-28 23:15:00,72.5,20.6,29.94,West,270,3.4,4.7,14,0.00,,SKC,0.00,VWS V14.00,2013-08-29 06:15:00,
2013-08-28 23:16:00,72.5,20.6,29.94,WNW,292,6.0,6.0,14,0.00,,SKC,0.00,VWS V14.00,2013-08-29 06:16:00,
2013-08-28 23:17:00,72.5,20.6,29.94,WNW,292,2.9,6.0,14,0.00,,SKC,0.00,VWS V14.00,2013-08-29 06:17:00,
2013-08-28 23:18:00,72.5,20.6,29.94,WNW,292,2.9,6.0,14,0.00,,SKC,0.00,VWS V14.00,2013-08-29 06:18:00,
2013-08-28 23:19:00,72.5,20.6,29.94,NW,315,0.0,6.0,14,0.00,,SKC,0.00,VWS V14.00,2013-08-29 06:19:00,
2013-08-28 23:20:00,73.2,24.4,29.94,West,270,1.6,6.0,16,0.00,,SKC,0.00,VWS V14.00,2013-08-29 06:20:00,
2013-08-28 23:22:00,73.0,24.2,29.94,West,270,0.0,0.0,16,0.00,,SKC,0.00,VWS V14.00,2013-08-29 06:22:00,
2013-08-28 23:23:00,73.0,24.2,29.94,WNW,292,4.3,4.3,16,0.00,,SKC,0.00,VWS V14.00,2013-08-29 06:23:00,
2013-08-28 23:24:00,73.0,24.2,29.94,WNW,292,4.0,4.3,16,0.00,,SKC,0.00,VWS V14.00,2013-08-29 06:24:00,
2013-08-28 23:25:00,73.2,24.4,29.94,NW,315,3.4,4.3,16,0.00,,SKC,0.00,VWS V14.00,2013-08-29 06:25:00,
2013-08-28 23:26:00,73.2,24.4,29.94,NW,315,3.4,4.3,16,0.00,,SKC,0.00,VWS V14.00,2013-08-29 06:26:00,
2013-08-28 23:27:00,73.2,24.4,29.94,WNW,292,3.8,4.7,16,0.00,,SKC,0.00,VWS V14.00,2013-08-29 06:27:00,
2013-08-28 23:28:00,73.2,24.4,29.94,WNW,292,3.4,4.7,16,0.00,,SKC,0.00,VWS V14.00,2013-08-29 06:28:00,
2013-08-28 23:29:00,73.2,24.4,29.94,WNW,292,3.4,4.7,16,0.00,,SKC,0.00,VWS V14.00,2013-08-29 06:29:00,
2013-08-28 23:30:00,73.0,24.2,29.94,WNW,292,5.4,5.4,16,0.00,,SKC,0.00,VWS V14.00,2013-08-29 06:30:00,
2013-08-28 23:32:00,73.2,24.4,29.94,WNW,292,3.1,5.6,16,0.00,,SKC,0.00,VWS V14.00,2013-08-29 06:32:00,
2013-08-28 23:33:00,73.2,24.4,29.94,NW,315,4.0,5.6,16,0.00,,SKC,0.00,VWS V14.00,2013-08-29 06:33:00,
2013-08-28 23:34:00,73.2,24.4,29.94,North,0,3.6,5.6,16,0.00,,SKC,0.00,VWS V14.00,2013-08-29 06:34:00,
2013-08-28 23:35:00,73.4,24.5,29.94,NW,315,3.1,7.4,16,0.00,,SKC,0.00,VWS V14.00,2013-08-29 06:35:00,
2013-08-28 23:37:00,73.6,24.7,29.94,West,270,3.4,4.7,16,0.00,,SKC,0.00,VWS V14.00,2013-08-29 06:37:00,
2013-08-28 23:38:00,73.6,24.7,29.94,NNW,338,1.6,4.7,16,0.00,,SKC,0.00,VWS V14.00,2013-08-29 06:38:00,
2013-08-28 23:39:00,73.4,24.5,29.94,North,0,3.1,4.7,16,0.00,,SKC,0.00,VWS V14.00,2013-08-29 06:39:00,
2013-08-28 23:40:00,73.6,24.7,29.94,WNW,292,7.2,7.2,16,0.00,,SKC,0.00,VWS V14.00,2013-08-29 06:40:00,
2013-08-28 23:41:00,73.9,25.0,29.94,WNW,292,5.6,7.2,16,0.00,,SKC,0.00,VWS V14.00,2013-08-29 06:41:00,
2013-08-28 23:42:00,73.9,25.0,29.94,WNW,292,7.2,7.4,16,0.00,,SKC,0.00,VWS V14.00,2013-08-29 06:42:00,
2013-08-28 23:44:00,74.1,25.1,29.94,West,270,5.4,7.4,16,0.00,,SKC,0.00,VWS V14.00,2013-08-29 06:44:00,
2013-08-28 23:45:00,74.1,25.1,29.94,WNW,292,6.3,7.4,16,0.00,,SKC,0.00,VWS V14.00,2013-08-29 06:45:00,
2013-08-28 23:47:00,73.9,25.0,29.94,WSW,248,3.4,6.3,16,0.00,,SKC,0.00,VWS V14.00,2013-08-29 06:47:00,
2013-08-28 23:49:00,73.9,25.0,29.94,WSW,248,6.0,6.7,16,0.00,,SKC,0.00,VWS V14.00,2013-08-29 06:49:00,
2013-08-28 23:50:00,74.3,25.2,29.94,West,270,5.8,6.7,16,0.00,,SKC,0.00,VWS V14.00,2013-08-29 06:50:00,
2013-08-28 23:52:00,74.5,25.4,29.94,West,270,5.8,11.0,16,0.00,,SKC,0.00,VWS V14.00,2013-08-29 06:52:00,
2013-08-28 23:53:00,74.5,25.4,29.94,West,270,4.9,11.0,16,0.00,,SKC,0.00,VWS V14.00,2013-08-29 06:53:00,
2013-08-28 23:54:00,74.3,25.2,29.94,WNW,292,3.8,11.0,16,0.00,,SKC,0.00,VWS V14.00,2013-08-29 06:54:00,
2013-08-28 23:55:00,74.3,25.2,29.94,WNW,292,3.8,11.0,16,0.00,,SKC,0.00,VWS V14.00,2013-08-29 06:55:00,
2013-08-28 23:57:00,74.1,25.1,29.94,West,270,6.0,6.0,16,0.00,,SKC,0.00,VWS V14.00,2013-08-29 06:57:00,
2013-08-28 23:58:00,74.1,25.1,29.94,West,270,6.0,6.0,16,0.00,,SKC,0.00,VWS V14.00,2013-08-29 06:58:00,
2013-08-28 23:59:00,74.3,25.2,29.94,West,270,6.3,7.6,16,0.00,,SKC,0.00,VWS V14.00,2013-08-29 06:59:00,